Observation data for Rotan on 02/13/2020      Previous  Date  Next       Current Mesonet Observations  Soil Data  Daily Summary Page  Observations in Plain Language
KRO1 130600Z 31006KT 03/M01 A3014 RMK A01 T00301008  RH  076%=      5-min Rain = 0
KRO1 130601Z 31006KT 03/M01 A3014 RMK A01 T00301008  RH  076%=      5-min Rain = 0
KRO1 130602Z 31006KT 03/M01 A3014 RMK A01 T00301008  RH  076%=      5-min Rain = 0
KRO1 130603Z 31005KT 03/M01 A3014 RMK A01 T00301008  RH  076%=      5-min Rain = 0
KRO1 130604Z 31005KT 03/M01 A3014 RMK A01 T00301008  RH  076%=      5-min Rain = 0
KRO1 130605Z 31005KT 03/M01 A3014 RMK A01 T00301009  RH  076%=      5-min Rain = 0
KRO1 130606Z 31005KT 03/M01 A3014 RMK A01 T00291008  RH  076%=      5-min Rain = 0
KRO1 130607Z 31006KT 03/M01 A3014 RMK A01 T00281008  RH  077%=      5-min Rain = 0
KRO1 130608Z 32007KT 03/M01 A3014 RMK A01 T00281008  RH  077%=      5-min Rain = 0
KRO1 130609Z 32007KT 03/M01 A3014 RMK A01 T00291009  RH  077%=      5-min Rain = 0
KRO1 130610Z 32007KT 03/M01 A3014 RMK A01 T00291008  RH  076%=      5-min Rain = 0
KRO1 130611Z 32007KT 03/M01 A3014 RMK A01 T00291008  RH  077%=      5-min Rain = 0
KRO1 130612Z 32007KT 03/M01 A3014 RMK A01 T00291008  RH  077%=      5-min Rain = 0
KRO1 130613Z 32008KT 03/M01 A3015 RMK A01 T00281008  RH  077%=      5-min Rain = 0
KRO1 130614Z 32008KT 03/M01 A3015 RMK A01 T00281008  RH  077%=      5-min Rain = 0
KRO1 130615Z 32008KT 03/M01 A3015 RMK A01 T00291008  RH  077%=      5-min Rain = 0
KRO1 130616Z 32008KT 03/M01 A3015 RMK A01 T00291008  RH  077%=      5-min Rain = 0
KRO1 130617Z 32008KT 03/M01 A3015 RMK A01 T00291009  RH  076%=      5-min Rain = 0
KRO1 130618Z 32008KT 03/M01 A3015 RMK A01 T00291009  RH  076%=      5-min Rain = 0
KRO1 130619Z 32008KT 03/M01 A3015 RMK A01 T00291008  RH  076%=      5-min Rain = 0
KRO1 130620Z 31007KT 03/M01 A3015 RMK A01 T00291008  RH  077%=      5-min Rain = 0
KRO1 130621Z 31008KT 03/M01 A3015 RMK A01 T00271009  RH  077%=      5-min Rain = 0
KRO1 130622Z 31008KT 03/M01 A3015 RMK A01 T00271008  RH  078%=      5-min Rain = 0
KRO1 130623Z 31008KT 03/M01 A3015 RMK A01 T00271008  RH  078%=      5-min Rain = 0
KRO1 130624Z 31009KT 03/M01 A3015 RMK A01 T00261008  RH  078%=      5-min Rain = 0
KRO1 130625Z 31009KT 03/M01 A3015 RMK A01 T00271008  RH  078%=      5-min Rain = 0
KRO1 130626Z 31009KT 03/M01 A3015 RMK A01 T00261008  RH  078%=      5-min Rain = 0
KRO1 130627Z 31009KT 03/M01 A3015 RMK A01 T00261008  RH  078%=      5-min Rain = 0
KRO1 130628Z 31009KT 03/M01 A3015 RMK A01 T00251009  RH  078%=      5-min Rain = 0
KRO1 130629Z 31009KT 03/M01 A3015 RMK A01 T00251009  RH  078%=      5-min Rain = 0
KRO1 130630Z 31009KT 03/M01 A3015 RMK A01 T00251009  RH  078%=      5-min Rain = 0
KRO1 130631Z 32009KT 03/M01 A3015 RMK A01 T00261009  RH  078%=      5-min Rain = 0
KRO1 130632Z 31009KT 03/M01 A3015 RMK A01 T00261009  RH  078%=      5-min Rain = 0
KRO1 130633Z 32008KT 03/M01 A3015 RMK A01 T00261009  RH  078%=      5-min Rain = 0
KRO1 130634Z 32008KT 03/M01 A3015 RMK A01 T00261009  RH  078%=      5-min Rain = 0
KRO1 130635Z 32008KT 03/M01 A3015 RMK A01 T00251009  RH  078%=      5-min Rain = 0
KRO1 130636Z 32008KT 03/M01 A3015 RMK A01 T00251009  RH  078%=      5-min Rain = 0
KRO1 130637Z 32008KT 03/M01 A3015 RMK A01 T00251009  RH  078%=      5-min Rain = 0
KRO1 130638Z 32008KT 03/M01 A3015 RMK A01 T00251009  RH  078%=      5-min Rain = 0
KRO1 130639Z 32008KT 02/M01 A3015 RMK A01 T00241009  RH  079%=      5-min Rain = 0
KRO1 130640Z 32008KT 02/M01 A3015 RMK A01 T00241009  RH  079%=      5-min Rain = 0
KRO1 130641Z 32008KT 02/M01 A3015 RMK A01 T00231009  RH  079%=      5-min Rain = 0
KRO1 130642Z 32007KT 02/M01 A3015 RMK A01 T00231009  RH  079%=      5-min Rain = 0
KRO1 130643Z 32007KT 02/M01 A3016 RMK A01 T00221009  RH  080%=      5-min Rain = 0
KRO1 130644Z 32007KT 02/M01 A3016 RMK A01 T00221009  RH  080%=      5-min Rain = 0
KRO1 130645Z 32007KT 02/M01 A3016 RMK A01 T00211009  RH  080%=      5-min Rain = 0
KRO1 130646Z 32007KT 02/M01 A3016 RMK A01 T00201009  RH  081%=      5-min Rain = 0
KRO1 130647Z 32007KT 02/M01 A3016 RMK A01 T00201009  RH  081%=      5-min Rain = 0
KRO1 130648Z 32007KT 02/M01 A3016 RMK A01 T00201009  RH  081%=      5-min Rain = 0
KRO1 130649Z 32007KT 02/M01 A3016 RMK A01 T00201009  RH  081%=      5-min Rain = 0
KRO1 130650Z 32007KT 02/M01 A3016 RMK A01 T00201009  RH  081%=      5-min Rain = 0
KRO1 130651Z 32007KT 02/M01 A3016 RMK A01 T00191009  RH  081%=      5-min Rain = 0
KRO1 130652Z 32007KT 02/M01 A3016 RMK A01 T00191009  RH  081%=      5-min Rain = 0
KRO1 130653Z 32007KT 02/M01 A3016 RMK A01 T00191009  RH  082%=      5-min Rain = 0
KRO1 130654Z 32007KT 02/M01 A3016 RMK A01 T00191010  RH  082%=      5-min Rain = 0
KRO1 130655Z 32007KT 02/M01 A3016 RMK A01 T00191009  RH  082%=      5-min Rain = 0
KRO1 130656Z 32007KT 02/M01 A3016 RMK A01 T00191010  RH  081%=      5-min Rain = 0
KRO1 130657Z 32007KT 02/M01 A3016 RMK A01 T00191010  RH  081%=      5-min Rain = 0
KRO1 130658Z 32007KT 02/M01 A3016 RMK A01 T00191010  RH  081%=      5-min Rain = 0
KRO1 130659Z 32007KT 02/M01 A3016 RMK A01 T00191010  RH  081%=      5-min Rain = 0
KRO1 130700Z 32007KT 02/M01 A3016 RMK A01 T00191010  RH  081%=      5-min Rain = 0
KRO1 130701Z 32007KT 02/M01 A3016 RMK A01 T00191011  RH  081%=      5-min Rain = 0
KRO1 130702Z 32007KT 02/M01 A3016 RMK A01 T00191011  RH  081%=      5-min Rain = 0
KRO1 130703Z 32007KT 02/M01 A3016 RMK A01 T00191011  RH  081%=      5-min Rain = 0
KRO1 130704Z 32006KT 02/M01 A3016 RMK A01 T00191011  RH  081%=      5-min Rain = 0
KRO1 130705Z 32006KT 02/M01 A3016 RMK A01 T00181011  RH  081%=      5-min Rain = 0
KRO1 130706Z 32006KT 02/M01 A3016 RMK A01 T00181011  RH  081%=      5-min Rain = 0
KRO1 130707Z 32006KT 02/M01 A3016 RMK A01 T00181011  RH  081%=      5-min Rain = 0
KRO1 130708Z 32006KT 02/M01 A3016 RMK A01 T00181011  RH  081%=      5-min Rain = 0
KRO1 130709Z 32006KT 02/M01 A3016 RMK A01 T00171012  RH  081%=      5-min Rain = 0
KRO1 130710Z 32006KT 02/M01 A3016 RMK A01 T00161011  RH  082%=      5-min Rain = 0
KRO1 130711Z 32006KT 02/M01 A3016 RMK A01 T00161011  RH  082%=      5-min Rain = 0
KRO1 130712Z 32006KT 02/M01 A3016 RMK A01 T00161012  RH  082%=      5-min Rain = 0
KRO1 130713Z 32006KT 02/M01 A3016 RMK A01 T00151012  RH  082%=      5-min Rain = 0
KRO1 130714Z 32006KT 02/M01 A3016 RMK A01 T00151011  RH  083%=      5-min Rain = 0
KRO1 130715Z 32006KT 02/M01 A3016 RMK A01 T00151011  RH  083%=      5-min Rain = 0
KRO1 130716Z 32006KT 02/M01 A3016 RMK A01 T00151011  RH  083%=      5-min Rain = 0
KRO1 130717Z 32006KT 01/M01 A3016 RMK A01 T00141012  RH  083%=      5-min Rain = 0
KRO1 130718Z 32006KT 01/M01 A3016 RMK A01 T00141012  RH  083%=      5-min Rain = 0
KRO1 130719Z 32006KT 01/M01 A3016 RMK A01 T00131012  RH  083%=      5-min Rain = 0
KRO1 130720Z 32006KT 01/M01 A3016 RMK A01 T00131013  RH  083%=      5-min Rain = 0
KRO1 130721Z 32006KT 01/M01 A3016 RMK A01 T00131012  RH  083%=      5-min Rain = 0
KRO1 130722Z 32006KT 01/M01 A3017 RMK A01 T00131013  RH  083%=      5-min Rain = 0
KRO1 130723Z 32006KT 01/M01 A3017 RMK A01 T00131013  RH  083%=      5-min Rain = 0
KRO1 130724Z 32006KT 01/M01 A3017 RMK A01 T00131013  RH  083%=      5-min Rain = 0
KRO1 130725Z 32006KT 01/M01 A3017 RMK A01 T00131013  RH  083%=      5-min Rain = 0
KRO1 130726Z 32007KT 01/M01 A3017 RMK A01 T00131013  RH  083%=      5-min Rain = 0
KRO1 130727Z 32007KT 01/M01 A3017 RMK A01 T00141013  RH  083%=      5-min Rain = 0
KRO1 130728Z 32007KT 01/M01 A3017 RMK A01 T00131013  RH  083%=      5-min Rain = 0
KRO1 130729Z 32007KT 01/M01 A3017 RMK A01 T00131013  RH  083%=      5-min Rain = 0
KRO1 130730Z 32007KT 01/M01 A3017 RMK A01 T00141013  RH  083%=      5-min Rain = 0
KRO1 130731Z 32007KT 01/M01 A3017 RMK A01 T00141013  RH  083%=      5-min Rain = 0
KRO1 130732Z 32007KT 01/M01 A3017 RMK A01 T00141013  RH  083%=      5-min Rain = 0
KRO1 130733Z 32007KT 01/M01 A3017 RMK A01 T00141013  RH  083%=      5-min Rain = 0
KRO1 130734Z 32007KT 01/M01 A3017 RMK A01 T00131013  RH  083%=      5-min Rain = 0
KRO1 130735Z 32007KT 01/M01 A3017 RMK A01 T00131013  RH  083%=      5-min Rain = 0
KRO1 130736Z 32008KT 01/M01 A3017 RMK A01 T00131013  RH  083%=      5-min Rain = 0
KRO1 130737Z 32007KT 01/M01 A3017 RMK A01 T00131013  RH  083%=      5-min Rain = 0
KRO1 130738Z 32007KT 01/M01 A3017 RMK A01 T00131013  RH  082%=      5-min Rain = 0
KRO1 130739Z 31007KT 01/M01 A3017 RMK A01 T00131013  RH  082%=      5-min Rain = 0
KRO1 130740Z 32007KT 01/M01 A3017 RMK A01 T00131014  RH  082%=      5-min Rain = 0
KRO1 130741Z 31007KT 01/M01 A3017 RMK A01 T00131014  RH  082%=      5-min Rain = 0
KRO1 130742Z 32007KT 01/M01 A3017 RMK A01 T00131014  RH  082%=      5-min Rain = 0
KRO1 130743Z 31007KT 01/M01 A3017 RMK A01 T00131014  RH  082%=      5-min Rain = 0
KRO1 130744Z 32007KT 01/M01 A3017 RMK A01 T00131014  RH  082%=      5-min Rain = 0
KRO1 130745Z 32007KT 01/M01 A3017 RMK A01 T00131014  RH  082%=      5-min Rain = 0
KRO1 130746Z 32007KT 01/M01 A3017 RMK A01 T00131014  RH  082%=      5-min Rain = 0
KRO1 130747Z 32007KT 01/M01 A3017 RMK A01 T00131014  RH  082%=      5-min Rain = 0
KRO1 130748Z 32007KT 01/M01 A3017 RMK A01 T00131014  RH  082%=      5-min Rain = 0
KRO1 130749Z 32007KT 01/M01 A3017 RMK A01 T00131014  RH  082%=      5-min Rain = 0
KRO1 130750Z 32008KT 01/M01 A3017 RMK A01 T00131014  RH  082%=      5-min Rain = 0
KRO1 130751Z 32007KT 01/M01 A3017 RMK A01 T00131014  RH  082%=      5-min Rain = 0
KRO1 130752Z 32008KT 01/M01 A3017 RMK A01 T00131014  RH  082%=      5-min Rain = 0
KRO1 130753Z 32008KT 01/M01 A3017 RMK A01 T00131014  RH  082%=      5-min Rain = 0
KRO1 130754Z 32008KT 01/M01 A3017 RMK A01 T00121014  RH  082%=      5-min Rain = 0
KRO1 130755Z 32008KT 01/M01 A3017 RMK A01 T00121014  RH  083%=      5-min Rain = 0
KRO1 130756Z 32008KT 01/M01 A3017 RMK A01 T00111014  RH  083%=      5-min Rain = 0
KRO1 130757Z 32008KT 01/M02 A3017 RMK A01 T00111015  RH  083%=      5-min Rain = 0
KRO1 130758Z 32008KT 01/M02 A3017 RMK A01 T00111015  RH  083%=      5-min Rain = 0
KRO1 130759Z 32008KT 01/M01 A3017 RMK A01 T00111014  RH  083%=      5-min Rain = 0
KRO1 130800Z 32008KT 01/M01 A3017 RMK A01 T00101014  RH  084%=      5-min Rain = 0
KRO1 130801Z 32008KT 01/M01 A3017 RMK A01 T00101014  RH  084%=      5-min Rain = 0
KRO1 130802Z 32008KT 01/M01 A3017 RMK A01 T00101014  RH  084%=      5-min Rain = 0
KRO1 130803Z 32008KT 01/M01 A3017 RMK A01 T00101014  RH  084%=      5-min Rain = 0
KRO1 130804Z 32008KT 01/M01 A3017 RMK A01 T00101014  RH  084%=      5-min Rain = 0
KRO1 130805Z 32007KT 01/M01 A3017 RMK A01 T00101014  RH  084%=      5-min Rain = 0
KRO1 130806Z 32008KT 01/M02 A3017 RMK A01 T00091015  RH  084%=      5-min Rain = 0
KRO1 130807Z 32007KT 01/M01 A3017 RMK A01 T00091014  RH  084%=      5-min Rain = 0
KRO1 130808Z 32007KT 01/M01 A3017 RMK A01 T00091014  RH  084%=      5-min Rain = 0
KRO1 130809Z 32007KT 01/M01 A3017 RMK A01 T00091014  RH  084%=      5-min Rain = 0
KRO1 130810Z 32007KT 01/M02 A3017 RMK A01 T00091015  RH  084%=      5-min Rain = 0
KRO1 130811Z 32007KT 01/M02 A3017 RMK A01 T00081015  RH  084%=      5-min Rain = 0
KRO1 130812Z 32007KT 01/M02 A3017 RMK A01 T00081015  RH  085%=      5-min Rain = 0
KRO1 130813Z 32007KT 01/M02 A3017 RMK A01 T00081015  RH  084%=      5-min Rain = 0
KRO1 130814Z 32006KT 01/M02 A3017 RMK A01 T00081015  RH  084%=      5-min Rain = 0
KRO1 130815Z 33006KT 01/M02 A3017 RMK A01 T00081015  RH  084%=      5-min Rain = 0
KRO1 130816Z 33006KT 01/M02 A3017 RMK A01 T00081016  RH  084%=      5-min Rain = 0
KRO1 130817Z 33006KT 01/M02 A3017 RMK A01 T00081015  RH  084%=      5-min Rain = 0
KRO1 130818Z 33007KT 01/M02 A3017 RMK A01 T00081015  RH  084%=      5-min Rain = 0
KRO1 130819Z 33007KT 01/M02 A3017 RMK A01 T00081015  RH  084%=      5-min Rain = 0
KRO1 130820Z 33007KT 01/M02 A3017 RMK A01 T00081015  RH  084%=      5-min Rain = 0
KRO1 130821Z 33007KT 01/M02 A3017 RMK A01 T00081015  RH  084%=      5-min Rain = 0
KRO1 130822Z 33006KT 01/M02 A3017 RMK A01 T00081015  RH  084%=      5-min Rain = 0
KRO1 130823Z 33006KT 01/M02 A3017 RMK A01 T00081015  RH  084%=      5-min Rain = 0
KRO1 130824Z 33006KT 01/M02 A3017 RMK A01 T00091015  RH  084%=      5-min Rain = 0
KRO1 130825Z 33006KT 01/M02 A3017 RMK A01 T00091016  RH  084%=      5-min Rain = 0
KRO1 130826Z 33006KT 01/M02 A3017 RMK A01 T00091016  RH  084%=      5-min Rain = 0
KRO1 130827Z 34006KT 01/M02 A3017 RMK A01 T00091015  RH  084%=      5-min Rain = 0
KRO1 130828Z 33006KT 01/M02 A3018 RMK A01 T00101015  RH  083%=      5-min Rain = 0
KRO1 130829Z 34006KT 01/M02 A3018 RMK A01 T00101015  RH  083%=      5-min Rain = 0
KRO1 130830Z 34006KT 01/M02 A3018 RMK A01 T00111015  RH  083%=      5-min Rain = 0
KRO1 130831Z 34006KT 01/M02 A3017 RMK A01 T00111016  RH  083%=      5-min Rain = 0
KRO1 130832Z 34006KT 01/M02 A3017 RMK A01 T00111016  RH  083%=      5-min Rain = 0
KRO1 130833Z 34006KT 01/M02 A3017 RMK A01 T00111016  RH  083%=      5-min Rain = 0
KRO1 130834Z 34006KT 01/M02 A3017 RMK A01 T00111015  RH  082%=      5-min Rain = 0
KRO1 130835Z 34006KT 01/M02 A3017 RMK A01 T00121015  RH  082%=      5-min Rain = 0
KRO1 130836Z 34006KT 01/M02 A3017 RMK A01 T00121016  RH  082%=      5-min Rain = 0
KRO1 130837Z 34006KT 01/M02 A3017 RMK A01 T00121016  RH  082%=      5-min Rain = 0
KRO1 130838Z 34006KT 01/M02 A3017 RMK A01 T00121016  RH  082%=      5-min Rain = 0
KRO1 130839Z 34006KT 01/M02 A3017 RMK A01 T00121016  RH  082%=      5-min Rain = 0
KRO1 130840Z 34006KT 01/M02 A3017 RMK A01 T00121016  RH  082%=      5-min Rain = 0
KRO1 130841Z 34006KT 01/M02 A3017 RMK A01 T00121016  RH  082%=      5-min Rain = 0
KRO1 130842Z 34006KT 01/M02 A3017 RMK A01 T00121016  RH  082%=      5-min Rain = 0
KRO1 130843Z 34006KT 01/M02 A3017 RMK A01 T00121016  RH  082%=      5-min Rain = 0
KRO1 130844Z 34006KT 01/M02 A3017 RMK A01 T00121016  RH  082%=      5-min Rain = 0
KRO1 130845Z 34006KT 01/M02 A3017 RMK A01 T00121016  RH  082%=      5-min Rain = 0
KRO1 130846Z 34006KT 01/M02 A3017 RMK A01 T00121016  RH  082%=      5-min Rain = 0
KRO1 130847Z 34007KT 01/M02 A3018 RMK A01 T00121016  RH  082%=      5-min Rain = 0
KRO1 130848Z 34006KT 01/M02 A3018 RMK A01 T00121016  RH  081%=      5-min Rain = 0
KRO1 130849Z 34006KT 01/M02 A3018 RMK A01 T00121016  RH  081%=      5-min Rain = 0
KRO1 130850Z 33006KT 01/M02 A3018 RMK A01 T00131016  RH  081%=      5-min Rain = 0
KRO1 130851Z 33006KT 01/M02 A3018 RMK A01 T00121016  RH  081%=      5-min Rain = 0
KRO1 130852Z 33006KT 01/M02 A3018 RMK A01 T00121016  RH  082%=      5-min Rain = 0
KRO1 130853Z 33006KT 01/M02 A3018 RMK A01 T00121015  RH  082%=      5-min Rain = 0
KRO1 130854Z 33006KT 01/M02 A3018 RMK A01 T00121015  RH  082%=      5-min Rain = 0
KRO1 130855Z 34006KT 01/M02 A3018 RMK A01 T00121016  RH  082%=      5-min Rain = 0
KRO1 130856Z 33005KT 01/M02 A3018 RMK A01 T00121015  RH  082%=      5-min Rain = 0
KRO1 130857Z 33005KT 01/M02 A3018 RMK A01 T00121015  RH  082%=      5-min Rain = 0
KRO1 130858Z 33005KT 01/M02 A3018 RMK A01 T00121016  RH  082%=      5-min Rain = 0
KRO1 130859Z 33005KT 01/M02 A3019 RMK A01 T00111016  RH  082%=      5-min Rain = 0
KRO1 130900Z 33005KT 01/M02 A3018 RMK A01 T00111016  RH  082%=      5-min Rain = 0
KRO1 130901Z 34005KT 01/M02 A3018 RMK A01 T00121016  RH  082%=      5-min Rain = 0
KRO1 130902Z 34005KT 01/M02 A3018 RMK A01 T00111016  RH  082%=      5-min Rain = 0
KRO1 130903Z 34005KT 01/M02 A3018 RMK A01 T00111016  RH  082%=      5-min Rain = 0
KRO1 130904Z 34005KT 01/M02 A3018 RMK A01 T00121016  RH  082%=      5-min Rain = 0
KRO1 130905Z 34005KT 01/M02 A3018 RMK A01 T00121016  RH  082%=      5-min Rain = 0
KRO1 130906Z 35004KT 01/M02 A3018 RMK A01 T00121016  RH  082%=      5-min Rain = 0
KRO1 130907Z 35004KT 01/M02 A3018 RMK A01 T00121016  RH  082%=      5-min Rain = 0
KRO1 130908Z 35005KT 01/M02 A3018 RMK A01 T00111016  RH  082%=      5-min Rain = 0
KRO1 130909Z 35005KT 01/M02 A3018 RMK A01 T00111016  RH  082%=      5-min Rain = 0
KRO1 130910Z 35004KT 01/M02 A3018 RMK A01 T00111016  RH  082%=      5-min Rain = 0
KRO1 130911Z 36005KT 01/M02 A3018 RMK A01 T00111016  RH  082%=      5-min Rain = 0
KRO1 130912Z 00005KT 01/M02 A3018 RMK A01 T00111016  RH  082%=      5-min Rain = 0
KRO1 130913Z 00005KT 01/M02 A3018 RMK A01 T00111016  RH  082%=      5-min Rain = 0
KRO1 130914Z 01005KT 01/M02 A3018 RMK A01 T00111016  RH  082%=      5-min Rain = 0
KRO1 130915Z 01005KT 01/M02 A3018 RMK A01 T00101016  RH  083%=      5-min Rain = 0
KRO1 130916Z 01005KT 01/M02 A3018 RMK A01 T00101016  RH  083%=      5-min Rain = 0
KRO1 130917Z 02005KT 01/M02 A3017 RMK A01 T00101016  RH  083%=      5-min Rain = 0
KRO1 130918Z 02006KT 01/M02 A3017 RMK A01 T00101015  RH  083%=      5-min Rain = 0
KRO1 130919Z 03006KT 01/M02 A3017 RMK A01 T00101015  RH  083%=      5-min Rain = 0
KRO1 130920Z 02006KT 01/M02 A3017 RMK A01 T00101015  RH  083%=      5-min Rain = 0
KRO1 130921Z 03006KT 01/M02 A3017 RMK A01 T00111015  RH  083%=      5-min Rain = 0
KRO1 130922Z 03007KT 01/M02 A3017 RMK A01 T00111015  RH  083%=      5-min Rain = 0
KRO1 130923Z 03007KT 01/M02 A3017 RMK A01 T00111016  RH  083%=      5-min Rain = 0
KRO1 130924Z 03007KT 01/M02 A3017 RMK A01 T00111016  RH  083%=      5-min Rain = 0
KRO1 130925Z 02008KT 01/M02 A3017 RMK A01 T00111015  RH  083%=      5-min Rain = 0
KRO1 130926Z 02008KT 01/M02 A3017 RMK A01 T00111015  RH  083%=      5-min Rain = 0
KRO1 130927Z 01008KT 01/M02 A3017 RMK A01 T00111015  RH  083%=      5-min Rain = 0
KRO1 130928Z 01008KT 01/M02 A3017 RMK A01 T00111015  RH  083%=      5-min Rain = 0
KRO1 130929Z 01008KT 01/M02 A3017 RMK A01 T00121015  RH  083%=      5-min Rain = 0
KRO1 130930Z 00008KT 01/M02 A3017 RMK A01 T00121015  RH  083%=      5-min Rain = 0
KRO1 130931Z 01007KT 01/M01 A3017 RMK A01 T00131014  RH  082%=      5-min Rain = 0
KRO1 130932Z 01007KT 01/M02 A3017 RMK A01 T00131015  RH  082%=      5-min Rain = 0
KRO1 130933Z 00007KT 01/M02 A3018 RMK A01 T00131015  RH  082%=      5-min Rain = 0
KRO1 130934Z 00008KT 01/M02 A3018 RMK A01 T00131015  RH  082%=      5-min Rain = 0
KRO1 130935Z 00007KT 01/M02 A3018 RMK A01 T00131015  RH  082%=      5-min Rain = 0
KRO1 130936Z 00008KT 01/M02 A3018 RMK A01 T00131015  RH  082%=      5-min Rain = 0
KRO1 130937Z 01009KT 01/M02 A3018 RMK A01 T00141015  RH  081%=      5-min Rain = 0
KRO1 130938Z 01008KT 02/M02 A3018 RMK A01 T00151015  RH  080%=      5-min Rain = 0
KRO1 130939Z 00007KT 02/M02 A3018 RMK A01 T00161016  RH  079%=      5-min Rain = 0
KRO1 130940Z 00008KT 02/M02 A3018 RMK A01 T00171015  RH  079%=      5-min Rain = 0
KRO1 130941Z 36009KT 02/M02 A3018 RMK A01 T00171016  RH  079%=      5-min Rain = 0
KRO1 130942Z 36008KT 02/M02 A3018 RMK A01 T00171016  RH  078%=      5-min Rain = 0
KRO1 130943Z 35009KT 02/M02 A3018 RMK A01 T00171016  RH  078%=      5-min Rain = 0
KRO1 130944Z 35008KT 02/M02 A3018 RMK A01 T00171016  RH  078%=      5-min Rain = 0
KRO1 130945Z 34008KT 02/M02 A3019 RMK A01 T00171016  RH  078%=      5-min Rain = 0
KRO1 130946Z 34008KT 02/M02 A3019 RMK A01 T00151017  RH  079%=      5-min Rain = 0
KRO1 130947Z 34008KT 01/M02 A3019 RMK A01 T00141017  RH  080%=      5-min Rain = 0
KRO1 130948Z 34008KT 01/M02 A3019 RMK A01 T00141017  RH  080%=      5-min Rain = 0
KRO1 130949Z 34007KT 01/M02 A3019 RMK A01 T00131017  RH  080%=      5-min Rain = 0
KRO1 130950Z 34007KT 01/M02 A3019 RMK A01 T00131017  RH  080%=      5-min Rain = 0
KRO1 130951Z 34007KT 01/M02 A3019 RMK A01 T00131017  RH  080%=      5-min Rain = 0
KRO1 130952Z 34007KT 01/M02 A3019 RMK A01 T00131017  RH  080%=      5-min Rain = 0
KRO1 130953Z 34007KT 01/M02 A3019 RMK A01 T00131018  RH  080%=      5-min Rain = 0
KRO1 130954Z 35007KT 01/M02 A3019 RMK A01 T00131017  RH  080%=      5-min Rain = 0
KRO1 130955Z 35006KT 01/M02 A3019 RMK A01 T00131017  RH  080%=      5-min Rain = 0
KRO1 130956Z 34007KT 01/M02 A3019 RMK A01 T00121018  RH  081%=      5-min Rain = 0
KRO1 130957Z 34007KT 01/M02 A3019 RMK A01 T00111018  RH  081%=      5-min Rain = 0
KRO1 130958Z 35007KT 01/M02 A3019 RMK A01 T00111017  RH  081%=      5-min Rain = 0
KRO1 130959Z 35008KT 01/M02 A3019 RMK A01 T00121017  RH  081%=      5-min Rain = 0
KRO1 131000Z 35008KT 01/M02 A3019 RMK A01 T00141016  RH  080%=      5-min Rain = 0
KRO1 131001Z 35009KT 02/M02 A3019 RMK A01 T00151016  RH  080%=      5-min Rain = 0
KRO1 131002Z 36008KT 02/M02 A3019 RMK A01 T00151016  RH  080%=      5-min Rain = 0
KRO1 131003Z 36009KT 02/M02 A3019 RMK A01 T00161016  RH  079%=      5-min Rain = 0
KRO1 131004Z 36009KT 02/M02 A3019 RMK A01 T00161017  RH  079%=      5-min Rain = 0
KRO1 131005Z 35009KT 02/M02 A3019 RMK A01 T00161017  RH  079%=      5-min Rain = 0
KRO1 131006Z 35009KT 02/M02 A3019 RMK A01 T00161016  RH  079%=      5-min Rain = 0
KRO1 131007Z 36009KT 02/M02 A3019 RMK A01 T00161016  RH  079%=      5-min Rain = 0
KRO1 131008Z 36009KT 02/M02 A3019 RMK A01 T00151016  RH  079%=      5-min Rain = 0
KRO1 131009Z 36009KT 02/M02 A3019 RMK A01 T00151016  RH  080%=      5-min Rain = 0
KRO1 131010Z 00009KT 02/M02 A3019 RMK A01 T00151016  RH  080%=      5-min Rain = 0
KRO1 131011Z 00009KT 02/M02 A3019 RMK A01 T00151016  RH  080%=      5-min Rain = 0
KRO1 131012Z 36009KT 02/M02 A3019 RMK A01 T00151016  RH  080%=      5-min Rain = 0
KRO1 131013Z 36008KT 02/M02 A3019 RMK A01 T00151016  RH  080%=      5-min Rain = 0
KRO1 131014Z 36008KT 02/M02 A3019 RMK A01 T00151016  RH  080%=      5-min Rain = 0
KRO1 131015Z 00009KT 02/M02 A302 RMK A01 T00151016  RH  080%=      5-min Rain = 0
KRO1 131016Z 36009KT 02/M02 A302 RMK A01 T00151016  RH  080%=      5-min Rain = 0
KRO1 131017Z 36008KT 02/M02 A302 RMK A01 T00151016  RH  080%=      5-min Rain = 0
KRO1 131018Z 36009KT 02/M02 A302 RMK A01 T00151016  RH  080%=      5-min Rain = 0
KRO1 131019Z 35009KT 02/M02 A302 RMK A01 T00151016  RH  080%=      5-min Rain = 0
KRO1 131020Z 35009KT 02/M02 A302 RMK A01 T00151016  RH  080%=      5-min Rain = 0
KRO1 131021Z 36009KT 02/M02 A302 RMK A01 T00151016  RH  080%=      5-min Rain = 0
KRO1 131022Z 00009KT 02/M02 A302 RMK A01 T00151016  RH  080%=      5-min Rain = 0
KRO1 131023Z 00008KT 01/M02 A302 RMK A01 T00141016  RH  080%=      5-min Rain = 0
KRO1 131024Z 00008KT 01/M02 A302 RMK A01 T00141016  RH  080%=      5-min Rain = 0
KRO1 131025Z 36009KT 01/M02 A302 RMK A01 T00141016  RH  081%=      5-min Rain = 0
KRO1 131026Z 36009KT 01/M02 A302 RMK A01 T00141016  RH  081%=      5-min Rain = 0
KRO1 131027Z 00009KT 01/M02 A302 RMK A01 T00141016  RH  081%=      5-min Rain = 0
KRO1 131028Z 36010KT 01/M02 A302 RMK A01 T00141016  RH  081%=      5-min Rain = 0
KRO1 131029Z 00010KT 01/M02 A302 RMK A01 T00141016  RH  081%=      5-min Rain = 0
KRO1 131030Z 36009KT 01/M02 A302 RMK A01 T00141016  RH  080%=      5-min Rain = 0
KRO1 131031Z 36008KT 01/M02 A302 RMK A01 T00141016  RH  080%=      5-min Rain = 0
KRO1 131032Z 36008KT 01/M02 A302 RMK A01 T00141016  RH  081%=      5-min Rain = 0
KRO1 131033Z 35008KT 01/M02 A302 RMK A01 T00131016  RH  081%=      5-min Rain = 0
KRO1 131034Z 35008KT 01/M02 A302 RMK A01 T00131016  RH  081%=      5-min Rain = 0
KRO1 131035Z 36008KT 01/M02 A302 RMK A01 T00121016  RH  082%=      5-min Rain = 0
KRO1 131036Z 35009KT 01/M02 A302 RMK A01 T00121015  RH  082%=      5-min Rain = 0
KRO1 131037Z 35008KT 01/M02 A302 RMK A01 T00121016  RH  082%=      5-min Rain = 0
KRO1 131038Z 35008KT 01/M02 A302 RMK A01 T00121016  RH  082%=      5-min Rain = 0
KRO1 131039Z 36008KT 01/M02 A302 RMK A01 T00121016  RH  081%=      5-min Rain = 0
KRO1 131040Z 36008KT 01/M02 A302 RMK A01 T00121016  RH  081%=      5-min Rain = 0
KRO1 131041Z 36008KT 01/M02 A302 RMK A01 T00121016  RH  081%=      5-min Rain = 0
KRO1 131042Z 36008KT 01/M02 A302 RMK A01 T00121016  RH  081%=      5-min Rain = 0
KRO1 131043Z 36010KT 01/M02 A302 RMK A01 T00121016  RH  081%=      5-min Rain = 0
KRO1 131044Z 36010KT 01/M02 A302 RMK A01 T00131016  RH  081%=      5-min Rain = 0
KRO1 131045Z 36010KT 01/M02 A302 RMK A01 T00131016  RH  081%=      5-min Rain = 0
KRO1 131046Z 36011KT 01/M02 A302 RMK A01 T00131016  RH  081%=      5-min Rain = 0
KRO1 131047Z 00010KT 01/M02 A302 RMK A01 T00141017  RH  080%=      5-min Rain = 0
KRO1 131048Z 36010KT 01/M02 A302 RMK A01 T00141017  RH  080%=      5-min Rain = 0
KRO1 131049Z 36010KT 01/M02 A302 RMK A01 T00141017  RH  080%=      5-min Rain = 0
KRO1 131050Z 00010KT 01/M02 A302 RMK A01 T00131017  RH  081%=      5-min Rain = 0
KRO1 131051Z 00009KT 01/M02 A302 RMK A01 T00131016  RH  081%=      5-min Rain = 0
KRO1 131052Z 00010KT 01/M02 A302 RMK A01 T00121016  RH  081%=      5-min Rain = 0
KRO1 131053Z 00010KT 01/M02 A302 RMK A01 T00121016  RH  082%=      5-min Rain = 0
KRO1 131054Z 00010KT 01/M02 A302 RMK A01 T00121016  RH  082%=      5-min Rain = 0
KRO1 131055Z 00010KT 01/M02 A302 RMK A01 T00111016  RH  082%=      5-min Rain = 0
KRO1 131056Z 00009KT 01/M02 A302 RMK A01 T00111016  RH  082%=      5-min Rain = 0
KRO1 131057Z 36010KT 01/M02 A302 RMK A01 T00111016  RH  082%=      5-min Rain = 0
KRO1 131058Z 36010KT 01/M02 A302 RMK A01 T00111016  RH  082%=      5-min Rain = 0
KRO1 131059Z 36009KT 01/M02 A302 RMK A01 T00111016  RH  082%=      5-min Rain = 0
KRO1 131100Z 36010KT 01/M02 A302 RMK A01 T00111016  RH  082%=      5-min Rain = 0
KRO1 131101Z 36010KT 01/M02 A302 RMK A01 T00111016  RH  082%=      5-min Rain = 0
KRO1 131102Z 36010KT 01/M02 A302 RMK A01 T00111017  RH  082%=      5-min Rain = 0
KRO1 131103Z 36010KT 01/M02 A302 RMK A01 T00111016  RH  082%=      5-min Rain = 0
KRO1 131104Z 36010KT 01/M02 A302 RMK A01 T00111017  RH  082%=      5-min Rain = 0
KRO1 131105Z 36010KT 01/M02 A302 RMK A01 T00101017  RH  082%=      5-min Rain = 0
KRO1 131106Z 36010KT 01/M02 A302 RMK A01 T00101017  RH  082%=      5-min Rain = 0
KRO1 131107Z 36009KT 01/M02 A302 RMK A01 T00101017  RH  082%=      5-min Rain = 0
KRO1 131108Z 36009KT 01/M02 A302 RMK A01 T00111016  RH  082%=      5-min Rain = 0
KRO1 131109Z 36009KT 01/M02 A3021 RMK A01 T00101017  RH  082%=      5-min Rain = 0
KRO1 131110Z 36009KT 01/M02 A3021 RMK A01 T00101017  RH  082%=      5-min Rain = 0
KRO1 131111Z 36009KT 01/M02 A3021 RMK A01 T00101017  RH  082%=      5-min Rain = 0
KRO1 131112Z 36009KT 01/M02 A3021 RMK A01 T00101017  RH  082%=      5-min Rain = 0
KRO1 131113Z 36009KT 01/M02 A3021 RMK A01 T00091017  RH  083%=      5-min Rain = 0
KRO1 131114Z 00008KT 01/M02 A3021 RMK A01 T00091017  RH  083%=      5-min Rain = 0
KRO1 131115Z 00009KT 01/M02 A3021 RMK A01 T00091017  RH  083%=      5-min Rain = 0
KRO1 131116Z 00009KT 01/M02 A3021 RMK A01 T00091017  RH  083%=      5-min Rain = 0
KRO1 131117Z 00009KT 01/M02 A3021 RMK A01 T00091018  RH  082%=      5-min Rain = 0
KRO1 131118Z 01009KT 01/M02 A3021 RMK A01 T00091018  RH  082%=      5-min Rain = 0
KRO1 131119Z 01010KT 01/M02 A3021 RMK A01 T00091018  RH  082%=      5-min Rain = 0
KRO1 131120Z 01011KT 01/M02 A3021 RMK A01 T00091019  RH  082%=      5-min Rain = 0
KRO1 131121Z 01010KT 01/M02 A3021 RMK A01 T00101019  RH  081%=      5-min Rain = 0
KRO1 131122Z 01011KT 01/M02 A3021 RMK A01 T00101018  RH  082%=      5-min Rain = 0
KRO1 131123Z 01010KT 01/M02 A3021 RMK A01 T00101019  RH  081%=      5-min Rain = 0
KRO1 131124Z 01011KT 01/M02 A3021 RMK A01 T00091019  RH  081%=      5-min Rain = 0
KRO1 131125Z 01011KT 01/M02 A3021 RMK A01 T00091019  RH  082%=      5-min Rain = 0
KRO1 131126Z 01011KT 01/M02 A3021 RMK A01 T00091019  RH  081%=      5-min Rain = 0
KRO1 131127Z 00011KT 01/M02 A3021 RMK A01 T00091019  RH  081%=      5-min Rain = 0
KRO1 131128Z 01011KT 01/M02 A3021 RMK A01 T00091019  RH  082%=      5-min Rain = 0
KRO1 131129Z 01011KT 01/M02 A3021 RMK A01 T00091020  RH  082%=      5-min Rain = 0
KRO1 131130Z 01011KT 01/M02 A3021 RMK A01 T00091019  RH  082%=      5-min Rain = 0
KRO1 131131Z 01012KT 01/M02 A3021 RMK A01 T00081019  RH  082%=      5-min Rain = 0
KRO1 131132Z 00012KT 01/M02 A3021 RMK A01 T00081019  RH  082%=      5-min Rain = 0
KRO1 131133Z 00011KT 01/M02 A3021 RMK A01 T00081019  RH  082%=      5-min Rain = 0
KRO1 131134Z 00012KT 01/M02 A3021 RMK A01 T00081019  RH  083%=      5-min Rain = 0
KRO1 131135Z 36012KT 01/M02 A3021 RMK A01 T00071019  RH  083%=      5-min Rain = 0
KRO1 131136Z 36012KT 01/M02 A3021 RMK A01 T00071019  RH  083%=      5-min Rain = 0
KRO1 131137Z 00013KT 01/M02 A3021 RMK A01 T00061019  RH  083%=      5-min Rain = 0
KRO1 131138Z 00012KT 01/M02 A3021 RMK A01 T00061019  RH  083%=      5-min Rain = 0
KRO1 131139Z 00013KT 01/M02 A3021 RMK A01 T00061019  RH  084%=      5-min Rain = 0
KRO1 131140Z 36013KT 01/M02 A3022 RMK A01 T00061019  RH  083%=      5-min Rain = 0
KRO1 131141Z 00014KT 01/M02 A3022 RMK A01 T00061020  RH  083%=      5-min Rain = 0
KRO1 131142Z 00014KT 01/M02 A3022 RMK A01 T00061020  RH  083%=      5-min Rain = 0
KRO1 131143Z 00015KT 01/M02 A3022 RMK A01 T00051020  RH  083%=      5-min Rain = 0
KRO1 131144Z 01013KT 01/M02 A3022 RMK A01 T00051021  RH  083%=      5-min Rain = 0
KRO1 131145Z 01013KT 01/M02 A3022 RMK A01 T00051021  RH  083%=      5-min Rain = 0
KRO1 131146Z 01013KT 00/M02 A3022 RMK A01 T00041021  RH  083%=      5-min Rain = 0
KRO1 131147Z 01015KT 00/M02 A3022 RMK A01 T00041022  RH  083%=      5-min Rain = 0
KRO1 131148Z 01014KT 00/M02 A3022 RMK A01 T00041022  RH  083%=      5-min Rain = 0
KRO1 131149Z 01015KT 00/M02 A3022 RMK A01 T00041021  RH  083%=      5-min Rain = 0
KRO1 131150Z 01014KT 00/M02 A3022 RMK A01 T00041022  RH  083%=      5-min Rain = 0
KRO1 131151Z 01014KT 00/M02 A3022 RMK A01 T00031022  RH  083%=      5-min Rain = 0
KRO1 131152Z 02015KT 00/M02 A3022 RMK A01 T00031022  RH  083%=      5-min Rain = 0
KRO1 131153Z 02014KT 00/M02 A3022 RMK A01 T00031022  RH  083%=      5-min Rain = 0
KRO1 131154Z 02014KT 00/M02 A3022 RMK A01 T00031023  RH  083%=      5-min Rain = 0
KRO1 131155Z 02014KT 00/M02 A3022 RMK A01 T00031023  RH  083%=      5-min Rain = 0
KRO1 131156Z 02015KT 00/M02 A3022 RMK A01 T00031023  RH  083%=      5-min Rain = 0
KRO1 131157Z 02014KT 00/M02 A3022 RMK A01 T00031023  RH  083%=      5-min Rain = 0
KRO1 131158Z 02016KT 00/M02 A3022 RMK A01 T00031023  RH  083%=      5-min Rain = 0
KRO1 131159Z 02015KT 00/M02 A3022 RMK A01 T00031023  RH  083%=      5-min Rain = 0
KRO1 131200Z 02014KT 00/M02 A3022 RMK A01 T00021023  RH  083%=      5-min Rain = 0
KRO1 131201Z 02015KT 00/M02 A3022 RMK A01 T00021023  RH  083%=      5-min Rain = 0
KRO1 131202Z 02015KT 00/M02 A3022 RMK A01 T00021022  RH  084%=      5-min Rain = 0
KRO1 131203Z 02014KT 00/M02 A3022 RMK A01 T00021023  RH  083%=      5-min Rain = 0
KRO1 131204Z 02011KT 00/M02 A3022 RMK A01 T00021023  RH  083%=      5-min Rain = 0
KRO1 131205Z 02012KT 00/M02 A3022 RMK A01 T00011022  RH  084%=      5-min Rain = 0
KRO1 131206Z 02013KT 00/M02 A3022 RMK A01 T00011022  RH  085%=      5-min Rain = 0
KRO1 131207Z 02013KT 00/M02 A3022 RMK A01 T00011022  RH  084%=      5-min Rain = 0
KRO1 131208Z 02012KT 00/M02 A3022 RMK A01 T00011022  RH  085%=      5-min Rain = 0
KRO1 131209Z 02012KT 00/02 A3022 RMK A01 T00000-22  RH  085%=      5-min Rain = 0
KRO1 131210Z 02013KT 00/02 A3022 RMK A01 T00000-21  RH  085%=      5-min Rain = 0
KRO1 131211Z 02013KT 00/02 A3022 RMK A01 T00000-22  RH  085%=      5-min Rain = 0
KRO1 131212Z 02014KT 00/02 A3022 RMK A01 T00000-22  RH  085%=      5-min Rain = 0
KRO1 131213Z 02013KT 00/02 A3022 RMK A01 T00-00-23  RH  085%=      5-min Rain = 0
KRO1 131214Z 03015KT 00/02 A3022 RMK A01 T00-00-23  RH  085%=      5-min Rain = 0
KRO1 131215Z 02012KT 00/02 A3022 RMK A01 T00-00-23  RH  085%=      5-min Rain = 0
KRO1 131216Z 02015KT 00/02 A3022 RMK A01 T00-00-22  RH  085%=      5-min Rain = 0
KRO1 131217Z 02013KT 00/02 A3022 RMK A01 T00000-22  RH  085%=      5-min Rain = 0
KRO1 131218Z 02013KT 00/02 A3022 RMK A01 T00-00-22  RH  085%=      5-min Rain = 0
KRO1 131219Z 02015KT M00/M02 A3022 RMK A01 T10011022  RH  086%=      5-min Rain = 0
KRO1 131220Z 02014KT M00/M02 A3022 RMK A01 T10011022  RH  086%=      5-min Rain = 0
KRO1 131221Z 02014KT M00/M02 A3022 RMK A01 T10011022  RH  086%=      5-min Rain = 0
KRO1 131222Z 02013KT M00/M02 A3022 RMK A01 T10021022  RH  086%=      5-min Rain = 0
KRO1 131223Z 02013KT M00/M02 A3022 RMK A01 T10021021  RH  086%=      5-min Rain = 0
KRO1 131224Z 02014KT M00/M02 A3022 RMK A01 T10021021  RH  087%=      5-min Rain = 0
KRO1 131225Z 02013KT M00/M02 A3022 RMK A01 T10021022  RH  087%=      5-min Rain = 0
KRO1 131226Z 02015KT M00/M02 A3022 RMK A01 T10021021  RH  087%=      5-min Rain = 0
KRO1 131227Z 02015KT M00/M02 A3022 RMK A01 T10021021  RH  087%=      5-min Rain = 0
KRO1 131228Z 02014KT M00/M02 A3022 RMK A01 T10021022  RH  087%=      5-min Rain = 0
KRO1 131229Z 02014KT M00/M02 A3022 RMK A01 T10021022  RH  087%=      5-min Rain = 0
KRO1 131230Z 02014KT M00/M02 A3022 RMK A01 T10031022  RH  087%=      5-min Rain = 0
KRO1 131231Z 02014KT M00/M02 A3022 RMK A01 T10031022  RH  087%=      5-min Rain = 0
KRO1 131232Z 02014KT M00/M02 A3022 RMK A01 T10031022  RH  087%=      5-min Rain = 0
KRO1 131233Z 02014KT M00/M02 A3022 RMK A01 T10031022  RH  087%=      5-min Rain = 0
KRO1 131234Z 02014KT M00/M02 A3022 RMK A01 T10031022  RH  087%=      5-min Rain = 0
KRO1 131235Z 02013KT M00/M02 A3023 RMK A01 T10031022  RH  087%=      5-min Rain = 0
KRO1 131236Z 01015KT M00/M02 A3023 RMK A01 T10031022  RH  087%=      5-min Rain = 0
KRO1 131237Z 02014KT M00/M02 A3023 RMK A01 T10031022  RH  087%=      5-min Rain = 0
KRO1 131238Z 02012KT M00/M02 A3023 RMK A01 T10031022  RH  087%=      5-min Rain = 0
KRO1 131239Z 01012KT M00/M02 A3023 RMK A01 T10041022  RH  087%=      5-min Rain = 0
KRO1 131240Z 01014KT M00/M02 A3023 RMK A01 T10041022  RH  088%=      5-min Rain = 0
KRO1 131241Z 01013KT M00/M02 A3023 RMK A01 T10041023  RH  087%=      5-min Rain = 0
KRO1 131242Z 01012KT M00/M02 A3023 RMK A01 T10041023  RH  087%=      5-min Rain = 0
KRO1 131243Z 01013KT M00/M02 A3023 RMK A01 T10041022  RH  088%=      5-min Rain = 0
KRO1 131244Z 01013KT M00/M02 A3023 RMK A01 T10041023  RH  087%=      5-min Rain = 0
KRO1 131245Z 01013KT M00/M02 A3023 RMK A01 T10041023  RH  087%=      5-min Rain = 0
KRO1 131246Z 01014KT M00/M02 A3024 RMK A01 T10041023  RH  087%=      5-min Rain = 0
KRO1 131247Z 01011KT M01/M02 A3024 RMK A01 T10051023  RH  087%=      5-min Rain = 0
KRO1 131248Z 01012KT M00/M02 A3024 RMK A01 T10041022  RH  088%=      5-min Rain = 0
KRO1 131249Z 01012KT M01/M02 A3024 RMK A01 T10051022  RH  088%=      5-min Rain = 0
KRO1 131250Z 01011KT M01/M02 A3024 RMK A01 T10051023  RH  088%=      5-min Rain = 0
KRO1 131251Z 01011KT M01/M02 A3024 RMK A01 T10051023  RH  088%=      5-min Rain = 0
KRO1 131252Z 01012KT M01/M02 A3024 RMK A01 T10051023  RH  088%=      5-min Rain = 0
KRO1 131253Z 01011KT M01/M02 A3024 RMK A01 T10061023  RH  088%=      5-min Rain = 0
KRO1 131254Z 01011KT M01/M02 A3025 RMK A01 T10061023  RH  088%=      5-min Rain = 0
KRO1 131255Z 01011KT M01/M02 A3025 RMK A01 T10061023  RH  088%=      5-min Rain = 0
KRO1 131256Z 01011KT M01/M02 A3025 RMK A01 T10061023  RH  088%=      5-min Rain = 0
KRO1 131257Z 01012KT M01/M02 A3025 RMK A01 T10061023  RH  088%=      5-min Rain = 0
KRO1 131258Z 01012KT M01/M02 A3025 RMK A01 T10061023  RH  088%=      5-min Rain = 0
KRO1 131259Z 01010KT M01/M02 A3025 RMK A01 T10061023  RH  088%=      5-min Rain = 0
KRO1 131300Z 01011KT M01/M02 A3025 RMK A01 T10061022  RH  089%=      5-min Rain = 0
KRO1 131301Z 01011KT M01/M02 A3025 RMK A01 T10061023  RH  089%=      5-min Rain = 0
KRO1 131302Z 01012KT M01/M02 A3025 RMK A01 T10061023  RH  089%=      5-min Rain = 0
KRO1 131303Z 01010KT M01/M02 A3025 RMK A01 T10061023  RH  089%=      5-min Rain = 0
KRO1 131304Z 02012KT M01/M02 A3025 RMK A01 T10071023  RH  089%=      5-min Rain = 0
KRO1 131305Z 01011KT M01/M02 A3025 RMK A01 T10071023  RH  089%=      5-min Rain = 0
KRO1 131306Z 01011KT M01/M02 A3025 RMK A01 T10071023  RH  089%=      5-min Rain = 0
KRO1 131307Z 01011KT M01/M02 A3025 RMK A01 T10071023  RH  089%=      5-min Rain = 0
KRO1 131308Z 01012KT M01/M02 A3026 RMK A01 T10071023  RH  089%=      5-min Rain = 0
KRO1 131309Z 01013KT M01/M02 A3026 RMK A01 T10071023  RH  089%=      5-min Rain = 0
KRO1 131310Z 01013KT M01/M02 A3026 RMK A01 T10071024  RH  088%=      5-min Rain = 0
KRO1 131311Z 01011KT M01/M02 A3026 RMK A01 T10071024  RH  088%=      5-min Rain = 0
KRO1 131312Z 01012KT M01/M03 A3025 RMK A01 T10071025  RH  088%=      5-min Rain = 0
KRO1 131313Z 01012KT M01/M03 A3026 RMK A01 T10071025  RH  088%=      5-min Rain = 0
KRO1 131314Z 01012KT M01/M02 A3026 RMK A01 T10071024  RH  088%=      5-min Rain = 0
KRO1 131315Z 01011KT M01/M02 A3026 RMK A01 T10071024  RH  089%=      5-min Rain = 0
KRO1 131316Z 01011KT M01/M02 A3026 RMK A01 T10071023  RH  089%=      5-min Rain = 0
KRO1 131317Z 01011KT M01/M02 A3026 RMK A01 T10081023  RH  089%=      5-min Rain = 0
KRO1 131318Z 01011KT M01/M02 A3026 RMK A01 T10081023  RH  089%=      5-min Rain = 0
KRO1 131319Z 01010KT M01/M02 A3026 RMK A01 T10081024  RH  089%=      5-min Rain = 0
KRO1 131320Z 01009KT M01/M02 A3026 RMK A01 T10081024  RH  089%=      5-min Rain = 0
KRO1 131321Z 00010KT M01/M02 A3026 RMK A01 T10081023  RH  089%=      5-min Rain = 0
KRO1 131322Z 01010KT M01/M02 A3026 RMK A01 T10081024  RH  089%=      5-min Rain = 0
KRO1 131323Z 00011KT M01/M02 A3026 RMK A01 T10081024  RH  089%=      5-min Rain = 0
KRO1 131324Z 01010KT M01/M02 A3026 RMK A01 T10091024  RH  089%=      5-min Rain = 0
KRO1 131325Z 01008KT M01/M02 A3026 RMK A01 T10091024  RH  089%=      5-min Rain = 0
KRO1 131326Z 00010KT M01/M02 A3026 RMK A01 T10091024  RH  089%=      5-min Rain = 0
KRO1 131327Z 00011KT M01/M02 A3026 RMK A01 T10091024  RH  089%=      5-min Rain = 0
KRO1 131328Z 00010KT M01/M03 A3026 RMK A01 T10091025  RH  089%=      5-min Rain = 0
KRO1 131329Z 00010KT M01/M02 A3027 RMK A01 T10091024  RH  090%=      5-min Rain = 0
KRO1 131330Z 00011KT M01/M03 A3027 RMK A01 T10101025  RH  090%=      5-min Rain = 0
KRO1 131331Z 00011KT M01/M03 A3027 RMK A01 T10101025  RH  090%=      5-min Rain = 0
KRO1 131332Z 00011KT M01/M03 A3027 RMK A01 T10101025  RH  089%=      5-min Rain = 0
KRO1 131333Z 00011KT M01/M03 A3027 RMK A01 T10111026  RH  089%=      5-min Rain = 0
KRO1 131334Z 01012KT M01/M03 A3027 RMK A01 T10111026  RH  089%=      5-min Rain = 0
KRO1 131335Z 00011KT M01/M03 A3027 RMK A01 T10111026  RH  089%=      5-min Rain = 0
KRO1 131336Z 01011KT M01/M03 A3027 RMK A01 T10101025  RH  090%=      5-min Rain = 0
KRO1 131337Z 00012KT M01/M03 A3027 RMK A01 T10111026  RH  090%=      5-min Rain = 0
KRO1 131338Z 00012KT M01/M03 A3027 RMK A01 T10111026  RH  089%=      5-min Rain = 0
KRO1 131339Z 01010KT M01/M03 A3027 RMK A01 T10111026  RH  089%=      5-min Rain = 0
KRO1 131340Z 01012KT M01/M03 A3027 RMK A01 T10111026  RH  089%=      5-min Rain = 0
KRO1 131341Z 00012KT M01/M03 A3027 RMK A01 T10111027  RH  089%=      5-min Rain = 0
KRO1 131342Z 01012KT M01/M03 A3027 RMK A01 T10111027  RH  089%=      5-min Rain = 0
KRO1 131343Z 00011KT M01/M03 A3027 RMK A01 T10111027  RH  089%=      5-min Rain = 0
KRO1 131344Z 01012KT M01/M03 A3027 RMK A01 T10111027  RH  089%=      5-min Rain = 0
KRO1 131345Z 00011KT M01/M03 A3027 RMK A01 T10111027  RH  089%=      5-min Rain = 0
KRO1 131346Z 00011KT M01/M03 A3028 RMK A01 T10111027  RH  089%=      5-min Rain = 0
KRO1 131347Z 00011KT M01/M03 A3028 RMK A01 T10111027  RH  089%=      5-min Rain = 0
KRO1 131348Z 00011KT M01/M03 A3028 RMK A01 T10111027  RH  089%=      5-min Rain = 0
KRO1 131349Z 00011KT M01/M03 A3028 RMK A01 T10111027  RH  089%=      5-min Rain = 0
KRO1 131350Z 00011KT M01/M03 A3028 RMK A01 T10111026  RH  089%=      5-min Rain = 0
KRO1 131351Z 00011KT M01/M03 A3028 RMK A01 T10111027  RH  089%=      5-min Rain = 0
KRO1 131352Z 00011KT M01/M03 A3028 RMK A01 T10121027  RH  089%=      5-min Rain = 0
KRO1 131353Z 00012KT M01/M03 A3028 RMK A01 T10121027  RH  089%=      5-min Rain = 0
KRO1 131354Z 00012KT M01/M03 A3028 RMK A01 T10121028  RH  089%=      5-min Rain = 0
KRO1 131355Z 36012KT M01/M03 A3028 RMK A01 T10121027  RH  089%=      5-min Rain = 0
KRO1 131356Z 01012KT M01/M03 A3028 RMK A01 T10121028  RH  089%=      5-min Rain = 0
KRO1 131357Z 00012KT M01/M03 A3028 RMK A01 T10121028  RH  089%=      5-min Rain = 0
KRO1 131358Z 01009KT M01/M03 A3028 RMK A01 T10121028  RH  089%=      5-min Rain = 0
KRO1 131359Z 00010KT M01/M03 A3028 RMK A01 T10121027  RH  089%=      5-min Rain = 0
KRO1 131400Z 01011KT M01/M03 A3028 RMK A01 T10121027  RH  089%=      5-min Rain = 0
KRO1 131401Z 01011KT M01/M03 A3028 RMK A01 T10121027  RH  089%=      5-min Rain = 0
KRO1 131402Z 01013KT M01/M03 A3028 RMK A01 T10121028  RH  089%=      5-min Rain = 0
KRO1 131403Z 01010KT M01/M03 A3028 RMK A01 T10121028  RH  089%=      5-min Rain = 0
KRO1 131404Z 00010KT M01/M03 A3028 RMK A01 T10121028  RH  089%=      5-min Rain = 0
KRO1 131405Z 00011KT M01/M03 A3028 RMK A01 T10121028  RH  089%=      5-min Rain = 0
KRO1 131406Z 00011KT M01/M03 A3028 RMK A01 T10121028  RH  089%=      5-min Rain = 0
KRO1 131407Z 01012KT M01/M03 A3028 RMK A01 T10121028  RH  089%=      5-min Rain = 0
KRO1 131408Z 00010KT M01/M03 A3028 RMK A01 T10121029  RH  088%=      5-min Rain = 0
KRO1 131409Z 00010KT M01/M03 A3028 RMK A01 T10121030  RH  088%=      5-min Rain = 0
KRO1 131410Z 00010KT M01/M03 A3028 RMK A01 T10121029  RH  088%=      5-min Rain = 0
KRO1 131411Z 00011KT M01/M03 A3028 RMK A01 T10121029  RH  088%=      5-min Rain = 0
KRO1 131412Z 00010KT M01/M03 A3029 RMK A01 T10121029  RH  088%=      5-min Rain = 0
KRO1 131413Z 00010KT M01/M03 A3029 RMK A01 T10121029  RH  088%=      5-min Rain = 0
KRO1 131414Z 36010KT M01/M03 A3029 RMK A01 T10121029  RH  089%=      5-min Rain = 0
KRO1 131415Z 01009KT M01/M03 A3029 RMK A01 T10121029  RH  089%=      5-min Rain = 0
KRO1 131416Z 00009KT M01/M03 A3029 RMK A01 T10121029  RH  089%=      5-min Rain = 0
KRO1 131417Z 36007KT M01/M03 A3029 RMK A01 T10121029  RH  089%=      5-min Rain = 0
KRO1 131418Z 01009KT M01/M03 A3029 RMK A01 T10121028  RH  089%=      5-min Rain = 0
KRO1 131419Z 00006KT M01/M03 A3029 RMK A01 T10121028  RH  089%=      5-min Rain = 0
KRO1 131420Z 00006KT M01/M03 A3029 RMK A01 T10121027  RH  089%=      5-min Rain = 0
KRO1 131421Z 36007KT M01/M03 A3029 RMK A01 T10121027  RH  089%=      5-min Rain = 0
KRO1 131422Z 36007KT M01/M03 A3029 RMK A01 T10121028  RH  089%=      5-min Rain = 0
KRO1 131423Z 35010KT M01/M03 A3029 RMK A01 T10121028  RH  089%=      5-min Rain = 0
KRO1 131424Z 00010KT M01/M03 A3029 RMK A01 T10121029  RH  088%=      5-min Rain = 0
KRO1 131425Z 00009KT M01/M03 A3029 RMK A01 T10121029  RH  088%=      5-min Rain = 0
KRO1 131426Z 00009KT M01/M03 A3029 RMK A01 T10121030  RH  088%=      5-min Rain = 0
KRO1 131427Z 35008KT M01/M03 A3029 RMK A01 T10121029  RH  088%=      5-min Rain = 0
KRO1 131428Z 00009KT M01/M03 A3029 RMK A01 T10121028  RH  089%=      5-min Rain = 0
KRO1 131429Z 36009KT M01/M03 A3029 RMK A01 T10121028  RH  089%=      5-min Rain = 0
KRO1 131430Z 00009KT M01/M03 A3029 RMK A01 T10121028  RH  089%=      5-min Rain = 0
KRO1 131431Z 00010KT M01/M03 A3029 RMK A01 T10121028  RH  089%=      5-min Rain = 0
KRO1 131432Z 01010KT M01/M03 A303 RMK A01 T10121029  RH  089%=      5-min Rain = 0
KRO1 131433Z 00008KT M01/M03 A303 RMK A01 T10121029  RH  088%=      5-min Rain = 0
KRO1 131434Z 00009KT M01/M03 A303 RMK A01 T10121028  RH  089%=      5-min Rain = 0
KRO1 131435Z 00009KT M01/M03 A303 RMK A01 T10121028  RH  089%=      5-min Rain = 0
KRO1 131436Z 00010KT M01/M03 A303 RMK A01 T10121028  RH  089%=      5-min Rain = 0
KRO1 131437Z 00011KT M01/M03 A303 RMK A01 T10121028  RH  089%=      5-min Rain = 0
KRO1 131438Z 36012KT M01/M03 A303 RMK A01 T10121029  RH  088%=      5-min Rain = 0
KRO1 131439Z 36010KT M01/M03 A303 RMK A01 T10121030  RH  088%=      5-min Rain = 0
KRO1 131440Z 01011KT M01/M03 A303 RMK A01 T10121030  RH  088%=      5-min Rain = 0
KRO1 131441Z 00011KT M01/M03 A303 RMK A01 T10111029  RH  088%=      5-min Rain = 0
KRO1 131442Z 00011KT M01/M03 A303 RMK A01 T10121029  RH  088%=      5-min Rain = 0
KRO1 131443Z 00011KT M01/M03 A303 RMK A01 T10121030  RH  088%=      5-min Rain = 0
KRO1 131444Z 01011KT M01/M03 A303 RMK A01 T10121029  RH  088%=      5-min Rain = 0
KRO1 131445Z 01011KT M01/M03 A303 RMK A01 T10121028  RH  088%=      5-min Rain = 0
KRO1 131446Z 02013KT M01/M03 A303 RMK A01 T10111029  RH  088%=      5-min Rain = 0
KRO1 131447Z 02010KT M01/M03 A303 RMK A01 T10111030  RH  087%=      5-min Rain = 0
KRO1 131448Z 01010KT M01/M03 A3031 RMK A01 T10111029  RH  088%=      5-min Rain = 0
KRO1 131449Z 01011KT M01/M03 A3031 RMK A01 T10111028  RH  088%=      5-min Rain = 0
KRO1 131450Z 02011KT M01/M03 A3031 RMK A01 T10111028  RH  088%=      5-min Rain = 0
KRO1 131451Z 02013KT M01/M03 A3031 RMK A01 T10111028  RH  088%=      5-min Rain = 0
KRO1 131452Z 02013KT M01/M03 A3031 RMK A01 T10111029  RH  088%=      5-min Rain = 0
KRO1 131453Z 02012KT M01/M03 A3031 RMK A01 T10111029  RH  088%=      5-min Rain = 0
KRO1 131454Z 02011KT M01/M03 A3031 RMK A01 T10111029  RH  088%=      5-min Rain = 0
KRO1 131455Z 01012KT M01/M03 A3031 RMK A01 T10111028  RH  088%=      5-min Rain = 0
KRO1 131456Z 01013KT M01/M03 A3031 RMK A01 T10111028  RH  088%=      5-min Rain = 0
KRO1 131457Z 02014KT M01/M03 A303 RMK A01 T10101028  RH  088%=      5-min Rain = 0
KRO1 131458Z 03014KT M01/M03 A303 RMK A01 T10111030  RH  087%=      5-min Rain = 0
KRO1 131459Z 02012KT M01/M03 A303 RMK A01 T10121031  RH  087%=      5-min Rain = 0
KRO1 131500Z 02012KT M01/M03 A303 RMK A01 T10111030  RH  088%=      5-min Rain = 0
KRO1 131501Z 02013KT M01/M03 A303 RMK A01 T10111029  RH  088%=      5-min Rain = 0
KRO1 131502Z 02013KT M01/M03 A303 RMK A01 T10111030  RH  087%=      5-min Rain = 0
KRO1 131503Z 02012KT M01/M03 A303 RMK A01 T10111030  RH  087%=      5-min Rain = 0
KRO1 131504Z 02012KT M01/M03 A3031 RMK A01 T10111030  RH  088%=      5-min Rain = 0
KRO1 131505Z 02014KT M01/M03 A3031 RMK A01 T10111028  RH  088%=      5-min Rain = 0
KRO1 131506Z 02014KT M01/M03 A3031 RMK A01 T10111029  RH  087%=      5-min Rain = 0
KRO1 131507Z 02014KT M01/M03 A3031 RMK A01 T10121030  RH  087%=      5-min Rain = 0
KRO1 131508Z 03013KT M01/M03 A3031 RMK A01 T10121030  RH  088%=      5-min Rain = 0
KRO1 131509Z 03012KT M01/M03 A3031 RMK A01 T10121029  RH  088%=      5-min Rain = 0
KRO1 131510Z 03013KT M01/M03 A3031 RMK A01 T10121028  RH  089%=      5-min Rain = 0
KRO1 131511Z 03012KT M01/M03 A3031 RMK A01 T10111028  RH  089%=      5-min Rain = 0
KRO1 131512Z 03011KT M01/M03 A3031 RMK A01 T10111027  RH  089%=      5-min Rain = 0
KRO1 131513Z 02010KT M01/M03 A3031 RMK A01 T10101026  RH  089%=      5-min Rain = 0
KRO1 131514Z 02012KT M01/M03 A3031 RMK A01 T10101025  RH  090%=      5-min Rain = 0
KRO1 131515Z 01013KT M01/M03 A3032 RMK A01 T10101026  RH  089%=      5-min Rain = 0
KRO1 131516Z 01014KT M01/M03 A3032 RMK A01 T10101027  RH  089%=      5-min Rain = 0
KRO1 131517Z 02014KT M01/M03 A3031 RMK A01 T10111029  RH  088%=      5-min Rain = 0
KRO1 131518Z 02013KT M01/M03 A3032 RMK A01 T10111029  RH  088%=      5-min Rain = 0
KRO1 131519Z 02013KT M01/M03 A3032 RMK A01 T10111028  RH  088%=      5-min Rain = 0
KRO1 131520Z 03013KT M01/M03 A3032 RMK A01 T10121029  RH  088%=      5-min Rain = 0
KRO1 131521Z 03013KT M01/M03 A3032 RMK A01 T10121029  RH  088%=      5-min Rain = 0
KRO1 131522Z 03013KT M01/M03 A3032 RMK A01 T10121029  RH  088%=      5-min Rain = 0
KRO1 131523Z 03012KT M01/M03 A3031 RMK A01 T10121029  RH  088%=      5-min Rain = 0
KRO1 131524Z 03013KT M01/M03 A3031 RMK A01 T10121029  RH  088%=      5-min Rain = 0
KRO1 131525Z 03012KT M01/M03 A3031 RMK A01 T10121029  RH  088%=      5-min Rain = 0
KRO1 131526Z 02012KT M01/M03 A3031 RMK A01 T10111028  RH  088%=      5-min Rain = 0
KRO1 131527Z 02013KT M01/M03 A3031 RMK A01 T10111028  RH  088%=      5-min Rain = 0
KRO1 131528Z 02013KT M01/M03 A3031 RMK A01 T10111028  RH  088%=      5-min Rain = 0
KRO1 131529Z 02012KT M01/M03 A3032 RMK A01 T10111027  RH  089%=      5-min Rain = 0
KRO1 131530Z 02011KT M01/M03 A3032 RMK A01 T10111028  RH  088%=      5-min Rain = 0
KRO1 131531Z 02013KT M01/M03 A3032 RMK A01 T10111028  RH  088%=      5-min Rain = 0
KRO1 131532Z 02011KT M01/M03 A3032 RMK A01 T10111028  RH  088%=      5-min Rain = 0
KRO1 131533Z 02012KT M01/M03 A3032 RMK A01 T10111027  RH  089%=      5-min Rain = 0
KRO1 131534Z 02011KT M01/M03 A3032 RMK A01 T10101027  RH  089%=      5-min Rain = 0
KRO1 131535Z 02012KT M01/M03 A3032 RMK A01 T10101025  RH  090%=      5-min Rain = 0
KRO1 131536Z 02014KT M01/M03 A3032 RMK A01 T10101025  RH  089%=      5-min Rain = 0
KRO1 131537Z 03012KT M01/M03 A3032 RMK A01 T10101028  RH  088%=      5-min Rain = 0
KRO1 131538Z 03013KT M01/M03 A3032 RMK A01 T10111028  RH  088%=      5-min Rain = 0
KRO1 131539Z 02012KT M01/M03 A3032 RMK A01 T10111028  RH  088%=      5-min Rain = 0
KRO1 131540Z 02012KT M01/M03 A3032 RMK A01 T10111029  RH  088%=      5-min Rain = 0
KRO1 131541Z 01012KT M01/M03 A3032 RMK A01 T10111028  RH  089%=      5-min Rain = 0
KRO1 131542Z 01012KT M01/M03 A3032 RMK A01 T10111028  RH  088%=      5-min Rain = 0
KRO1 131543Z 01010KT M01/M03 A3032 RMK A01 T10121029  RH  088%=      5-min Rain = 0
KRO1 131544Z 01011KT M01/M03 A3032 RMK A01 T10111027  RH  089%=      5-min Rain = 0
KRO1 131545Z 01012KT M01/M03 A3032 RMK A01 T10111027  RH  089%=      5-min Rain = 0
KRO1 131546Z 01011KT M01/M03 A3032 RMK A01 T10111028  RH  088%=      5-min Rain = 0
KRO1 131547Z 01011KT M01/M03 A3032 RMK A01 T10111027  RH  089%=      5-min Rain = 0
KRO1 131548Z 01012KT M01/M03 A3032 RMK A01 T10111026  RH  089%=      5-min Rain = 0
KRO1 131549Z 02011KT M01/M03 A3032 RMK A01 T10111028  RH  088%=      5-min Rain = 0
KRO1 131550Z 02012KT M01/M03 A3032 RMK A01 T10111028  RH  088%=      5-min Rain = 0
KRO1 131551Z 02012KT M01/M03 A3032 RMK A01 T10111027  RH  089%=      5-min Rain = 0
KRO1 131552Z 02010KT M01/M03 A3032 RMK A01 T10111028  RH  089%=      5-min Rain = 0
KRO1 131553Z 01012KT M01/M03 A3032 RMK A01 T10111028  RH  088%=      5-min Rain = 0
KRO1 131554Z 01010KT M01/M03 A3032 RMK A01 T10111028  RH  088%=      5-min Rain = 0
KRO1 131555Z 02011KT M01/M03 A3032 RMK A01 T10121029  RH  088%=      5-min Rain = 0
KRO1 131556Z 03012KT M01/M03 A3032 RMK A01 T10111028  RH  089%=      5-min Rain = 0
KRO1 131557Z 03011KT M01/M03 A3032 RMK A01 T10111028  RH  088%=      5-min Rain = 0
KRO1 131558Z 03012KT M01/M03 A3032 RMK A01 T10111027  RH  089%=      5-min Rain = 0
KRO1 131559Z 03012KT M01/M03 A3032 RMK A01 T10111027  RH  089%=      5-min Rain = 0
KRO1 131600Z 03013KT M01/M03 A3032 RMK A01 T10111026  RH  089%=      5-min Rain = 0
KRO1 131601Z 03012KT M01/M03 A3032 RMK A01 T10101027  RH  089%=      5-min Rain = 0
KRO1 131602Z 02011KT M01/M03 A3032 RMK A01 T10111028  RH  089%=      5-min Rain = 0
KRO1 131603Z 02011KT M01/M03 A3032 RMK A01 T10111028  RH  088%=      5-min Rain = 0
KRO1 131604Z 02010KT M01/M03 A3032 RMK A01 T10101026  RH  089%=      5-min Rain = 0
KRO1 131605Z 02009KT M01/M03 A3032 RMK A01 T10101027  RH  089%=      5-min Rain = 0
KRO1 131606Z 02010KT M01/M03 A3032 RMK A01 T10101027  RH  088%=      5-min Rain = 0
KRO1 131607Z 02009KT M01/M03 A3033 RMK A01 T10101026  RH  089%=      5-min Rain = 0
KRO1 131608Z 04007KT M01/M02 A3033 RMK A01 T10091024  RH  089%=      5-min Rain = 0
KRO1 131609Z 03008KT M01/M02 A3033 RMK A01 T10091024  RH  089%=      5-min Rain = 0
KRO1 131610Z 02010KT M01/M02 A3033 RMK A01 T10081024  RH  089%=      5-min Rain = 0
KRO1 131611Z 01011KT M01/M03 A3033 RMK A01 T10091025  RH  089%=      5-min Rain = 0
KRO1 131612Z 02010KT M01/M03 A3033 RMK A01 T10091027  RH  088%=      5-min Rain = 0
KRO1 131613Z 02010KT M01/M03 A3033 RMK A01 T10091026  RH  088%=      5-min Rain = 0
KRO1 131614Z 02010KT M01/M03 A3033 RMK A01 T10101027  RH  088%=      5-min Rain = 0
KRO1 131615Z 01010KT M01/M03 A3033 RMK A01 T10101027  RH  088%=      5-min Rain = 0
KRO1 131616Z 01010KT M01/M03 A3033 RMK A01 T10101027  RH  088%=      5-min Rain = 0
KRO1 131617Z 01009KT M01/M03 A3033 RMK A01 T10101029  RH  088%=      5-min Rain = 0
KRO1 131618Z 01009KT M01/M03 A3033 RMK A01 T10091025  RH  089%=      5-min Rain = 0
KRO1 131619Z 03010KT M01/M02 A3033 RMK A01 T10081023  RH  089%=      5-min Rain = 0
KRO1 131620Z 04010KT M01/M03 A3033 RMK A01 T10081025  RH  088%=      5-min Rain = 0
KRO1 131621Z 02010KT M01/M03 A3033 RMK A01 T10091027  RH  088%=      5-min Rain = 0
KRO1 131622Z 03010KT M01/M03 A3033 RMK A01 T10101027  RH  088%=      5-min Rain = 0
KRO1 131623Z 03009KT M01/M03 A3033 RMK A01 T10101027  RH  088%=      5-min Rain = 0
KRO1 131624Z 03010KT M01/M03 A3033 RMK A01 T10101027  RH  088%=      5-min Rain = 0
KRO1 131625Z 02009KT M01/M03 A3033 RMK A01 T10101027  RH  088%=      5-min Rain = 0
KRO1 131626Z 02009KT M01/M03 A3033 RMK A01 T10101027  RH  088%=      5-min Rain = 0
KRO1 131627Z 03011KT M01/M03 A3033 RMK A01 T10101026  RH  089%=      5-min Rain = 0
KRO1 131628Z 03011KT M01/M03 A3033 RMK A01 T10101027  RH  088%=      5-min Rain = 0
KRO1 131629Z 03010KT M01/M03 A3033 RMK A01 T10101028  RH  088%=      5-min Rain = 0
KRO1 131630Z 02009KT M01/M03 A3033 RMK A01 T10101027  RH  088%=      5-min Rain = 0
KRO1 131631Z 01009KT M01/M03 A3033 RMK A01 T10091025  RH  089%=      5-min Rain = 0
KRO1 131632Z 02009KT M01/M03 A3033 RMK A01 T10101027  RH  088%=      5-min Rain = 0
KRO1 131633Z 01009KT M01/M03 A3033 RMK A01 T10101027  RH  088%=      5-min Rain = 0
KRO1 131634Z 01010KT M01/M02 A3033 RMK A01 T10091024  RH  089%=      5-min Rain = 0
KRO1 131635Z 01009KT M01/M02 A3033 RMK A01 T10091024  RH  089%=      5-min Rain = 0
KRO1 131636Z 00009KT M01/M03 A3033 RMK A01 T10091025  RH  089%=      5-min Rain = 0
KRO1 131637Z 01010KT M01/M03 A3033 RMK A01 T10091027  RH  088%=      5-min Rain = 0
KRO1 131638Z 01010KT M01/M03 A3033 RMK A01 T10101029  RH  087%=      5-min Rain = 0
KRO1 131639Z 00008KT M01/M03 A3033 RMK A01 T10111028  RH  088%=      5-min Rain = 0
KRO1 131640Z 00009KT M01/M03 A3033 RMK A01 T10101027  RH  088%=      5-min Rain = 0
KRO1 131641Z 35009KT M01/M03 A3033 RMK A01 T10091025  RH  089%=      5-min Rain = 0
KRO1 131642Z 01010KT M01/M03 A3033 RMK A01 T10081025  RH  089%=      5-min Rain = 0
KRO1 131643Z 01009KT M01/M02 A3033 RMK A01 T10081024  RH  089%=      5-min Rain = 0
KRO1 131644Z 01012KT M01/M03 A3033 RMK A01 T10091026  RH  088%=      5-min Rain = 0
KRO1 131645Z 02011KT M01/M03 A3033 RMK A01 T10091026  RH  088%=      5-min Rain = 0
KRO1 131646Z 02009KT M01/M03 A3033 RMK A01 T10081025  RH  089%=      5-min Rain = 0
KRO1 131647Z 01010KT M01/M03 A3033 RMK A01 T10091026  RH  088%=      5-min Rain = 0
KRO1 131648Z 01009KT M01/M02 A3033 RMK A01 T10081024  RH  089%=      5-min Rain = 0
KRO1 131649Z 01009KT M01/M03 A3033 RMK A01 T10081026  RH  088%=      5-min Rain = 0
KRO1 131650Z 01010KT M01/M03 A3033 RMK A01 T10081026  RH  088%=      5-min Rain = 0
KRO1 131651Z 01009KT M01/M03 A3033 RMK A01 T10091026  RH  088%=      5-min Rain = 0
KRO1 131652Z 01008KT M01/M02 A3033 RMK A01 T10081024  RH  089%=      5-min Rain = 0
KRO1 131653Z 01010KT M01/M02 A3033 RMK A01 T10081024  RH  089%=      5-min Rain = 0
KRO1 131654Z 01010KT M01/M02 A3033 RMK A01 T10081024  RH  089%=      5-min Rain = 0
KRO1 131655Z 01011KT M01/M03 A3033 RMK A01 T10071025  RH  088%=      5-min Rain = 0
KRO1 131656Z 02009KT M01/M03 A3033 RMK A01 T10091027  RH  087%=      5-min Rain = 0
KRO1 131657Z 02009KT M01/M03 A3033 RMK A01 T10091026  RH  088%=      5-min Rain = 0
KRO1 131658Z 02008KT M01/M03 A3033 RMK A01 T10081025  RH  088%=      5-min Rain = 0
KRO1 131659Z 01009KT M01/M03 A3033 RMK A01 T10081025  RH  088%=      5-min Rain = 0
KRO1 131700Z 02008KT M01/M02 A3033 RMK A01 T10081024  RH  089%=      5-min Rain = 0
KRO1 131701Z 01007KT M01/M02 A3033 RMK A01 T10071023  RH  089%=      5-min Rain = 0
KRO1 131702Z 36006KT M01/M02 A3033 RMK A01 T10071024  RH  088%=      5-min Rain = 0
KRO1 131703Z 01007KT M01/M02 A3033 RMK A01 T10071023  RH  089%=      5-min Rain = 0
KRO1 131704Z 02009KT M01/M02 A3033 RMK A01 T10061023  RH  088%=      5-min Rain = 0
KRO1 131705Z 01009KT M01/M02 A3033 RMK A01 T10061022  RH  088%=      5-min Rain = 0
KRO1 131706Z 01009KT M01/M02 A3033 RMK A01 T10051021  RH  089%=      5-min Rain = 0
KRO1 131707Z 02008KT M01/M02 A3033 RMK A01 T10051023  RH  088%=      5-min Rain = 0
KRO1 131708Z 02006KT M01/M03 A3033 RMK A01 T10061025  RH  087%=      5-min Rain = 0
KRO1 131709Z 01007KT M01/M02 A3033 RMK A01 T10061024  RH  088%=      5-min Rain = 0
KRO1 131710Z 01009KT M01/M02 A3033 RMK A01 T10051022  RH  088%=      5-min Rain = 0
KRO1 131711Z 01009KT M01/M02 A3033 RMK A01 T10051023  RH  088%=      5-min Rain = 0
KRO1 131712Z 00009KT M01/M02 A3033 RMK A01 T10051023  RH  088%=      5-min Rain = 0
KRO1 131713Z 01007KT M01/M02 A3033 RMK A01 T10051024  RH  087%=      5-min Rain = 0
KRO1 131714Z 01009KT M01/M03 A3033 RMK A01 T10061027  RH  086%=      5-min Rain = 0
KRO1 131715Z 02008KT M01/M03 A3033 RMK A01 T10061026  RH  087%=      5-min Rain = 0
KRO1 131716Z 00008KT M01/M02 A3033 RMK A01 T10061024  RH  088%=      5-min Rain = 0
KRO1 131717Z 01006KT M01/M02 A3033 RMK A01 T10051023  RH  088%=      5-min Rain = 0
KRO1 131718Z 36009KT M01/M02 A3033 RMK A01 T10051023  RH  088%=      5-min Rain = 0
KRO1 131719Z 00010KT M00/M02 A3033 RMK A01 T10041020  RH  089%=      5-min Rain = 0
KRO1 131720Z 01009KT M00/M02 A3033 RMK A01 T10041022  RH  088%=      5-min Rain = 0
KRO1 131721Z 01009KT M00/M02 A3033 RMK A01 T10041022  RH  088%=      5-min Rain = 0
KRO1 131722Z 02010KT M00/M02 A3033 RMK A01 T10041022  RH  088%=      5-min Rain = 0
KRO1 131723Z 02008KT M00/M02 A3033 RMK A01 T10041022  RH  088%=      5-min Rain = 0
KRO1 131724Z 00009KT M00/M02 A3033 RMK A01 T10031020  RH  089%=      5-min Rain = 0
KRO1 131725Z 00008KT M00/M02 A3033 RMK A01 T10031021  RH  088%=      5-min Rain = 0
KRO1 131726Z 01007KT M01/M03 A3033 RMK A01 T10051026  RH  086%=      5-min Rain = 0
KRO1 131727Z 02007KT M01/M03 A3033 RMK A01 T10051026  RH  086%=      5-min Rain = 0
KRO1 131728Z 02008KT M01/M02 A3033 RMK A01 T10051022  RH  088%=      5-min Rain = 0
KRO1 131729Z 03008KT M00/M02 A3033 RMK A01 T10031020  RH  088%=      5-min Rain = 0
KRO1 131730Z 02007KT M00/M02 A3033 RMK A01 T10041023  RH  087%=      5-min Rain = 0
KRO1 131731Z 01005KT M01/M03 A3033 RMK A01 T10051025  RH  086%=      5-min Rain = 0
KRO1 131732Z 01007KT M01/M03 A3033 RMK A01 T10051025  RH  087%=      5-min Rain = 0
KRO1 131733Z 01006KT M00/M02 A3033 RMK A01 T10041022  RH  088%=      5-min Rain = 0
KRO1 131734Z 01006KT M00/M02 A3033 RMK A01 T10041022  RH  087%=      5-min Rain = 0
KRO1 131735Z 01008KT M01/M03 A3033 RMK A01 T10051025  RH  086%=      5-min Rain = 0
KRO1 131736Z 01007KT M01/M02 A3033 RMK A01 T10051024  RH  087%=      5-min Rain = 0
KRO1 131737Z 01005KT M01/M02 A3033 RMK A01 T10051024  RH  087%=      5-min Rain = 0
KRO1 131738Z 01006KT M01/M02 A3033 RMK A01 T10051024  RH  087%=      5-min Rain = 0
KRO1 131739Z 02007KT M00/M02 A3033 RMK A01 T10041024  RH  087%=      5-min Rain = 0
KRO1 131740Z 03007KT M00/M02 A3033 RMK A01 T10041023  RH  087%=      5-min Rain = 0
KRO1 131741Z 03008KT M00/M02 A3033 RMK A01 T10031021  RH  088%=      5-min Rain = 0
KRO1 131742Z 02007KT M00/M02 A3033 RMK A01 T10031023  RH  086%=      5-min Rain = 0
KRO1 131743Z 02006KT M00/M02 A3033 RMK A01 T10031023  RH  086%=      5-min Rain = 0
KRO1 131744Z 03006KT M00/M02 A3033 RMK A01 T10041024  RH  086%=      5-min Rain = 0
KRO1 131745Z 03005KT M00/M03 A3033 RMK A01 T10041025  RH  086%=      5-min Rain = 0
KRO1 131746Z 02005KT M00/M03 A3033 RMK A01 T10041025  RH  086%=      5-min Rain = 0
KRO1 131747Z 02005KT M00/M02 A3033 RMK A01 T10041024  RH  086%=      5-min Rain = 0
KRO1 131748Z 02007KT M00/M02 A3033 RMK A01 T10021019  RH  088%=      5-min Rain = 0
KRO1 131749Z 03008KT M00/M02 A3033 RMK A01 T10011018  RH  088%=      5-min Rain = 0
KRO1 131750Z 02007KT M00/M02 A3033 RMK A01 T10011020  RH  087%=      5-min Rain = 0
KRO1 131751Z 02005KT M00/M02 A3033 RMK A01 T10011022  RH  086%=      5-min Rain = 0
KRO1 131752Z 02007KT 00/02 A3033 RMK A01 T00-00-19  RH  087%=      5-min Rain = 0
KRO1 131753Z 01006KT 00/M02 A3033 RMK A01 T00011016  RH  088%=      5-min Rain = 0
KRO1 131754Z 00007KT 00/M02 A3033 RMK A01 T00011017  RH  087%=      5-min Rain = 0
KRO1 131755Z 01006KT 00/M02 A3033 RMK A01 T00011019  RH  086%=      5-min Rain = 0
KRO1 131756Z 01008KT 00/M02 A3033 RMK A01 T00021017  RH  087%=      5-min Rain = 0
KRO1 131757Z 02008KT 00/M02 A3033 RMK A01 T00021018  RH  087%=      5-min Rain = 0
KRO1 131758Z 02008KT 00/M02 A3033 RMK A01 T00021019  RH  086%=      5-min Rain = 0
KRO1 131759Z 01008KT 00/M02 A3033 RMK A01 T00011020  RH  086%=      5-min Rain = 0
KRO1 131800Z 01005KT 00/02 A3033 RMK A01 T00-00-23  RH  085%=      5-min Rain = 0
KRO1 131801Z 01008KT M00/M02 A3033 RMK A01 T10011024  RH  085%=      5-min Rain = 0
KRO1 131802Z 01007KT M00/M02 A3033 RMK A01 T10011023  RH  085%=      5-min Rain = 0
KRO1 131803Z 01008KT M00/M02 A3032 RMK A01 T10011023  RH  085%=      5-min Rain = 0
KRO1 131804Z 01008KT M00/M02 A3032 RMK A01 T10011022  RH  086%=      5-min Rain = 0
KRO1 131805Z 00007KT M00/M02 A3032 RMK A01 T10011023  RH  085%=      5-min Rain = 0
KRO1 131806Z 00007KT M00/M02 A3032 RMK A01 T10011021  RH  086%=      5-min Rain = 0
KRO1 131807Z 01008KT 00/02 A3032 RMK A01 T00-00-21  RH  086%=      5-min Rain = 0
KRO1 131808Z 02009KT 00/M02 A3032 RMK A01 T00011019  RH  087%=      5-min Rain = 0
KRO1 131809Z 02008KT 00/M02 A3032 RMK A01 T00011018  RH  087%=      5-min Rain = 0
KRO1 131810Z 04007KT 00/M02 A3032 RMK A01 T00011018  RH  086%=      5-min Rain = 0
KRO1 131811Z 04007KT 00/M02 A3032 RMK A01 T00021020  RH  086%=      5-min Rain = 0
KRO1 131812Z 02008KT 00/M02 A3032 RMK A01 T00011019  RH  086%=      5-min Rain = 0
KRO1 131813Z 02007KT 00/M02 A3032 RMK A01 T00011020  RH  086%=      5-min Rain = 0
KRO1 131814Z 01007KT 00/02 A3032 RMK A01 T00000-23  RH  084%=      5-min Rain = 0
KRO1 131815Z 03005KT 00/02 A3032 RMK A01 T00000-22  RH  085%=      5-min Rain = 0
KRO1 131816Z 02004KT 00/02 A3032 RMK A01 T00000-22  RH  085%=      5-min Rain = 0
KRO1 131817Z 02005KT 00/02 A3032 RMK A01 T00000-23  RH  084%=      5-min Rain = 0
KRO1 131818Z 01006KT 00/02 A3032 RMK A01 T00-00-23  RH  085%=      5-min Rain = 0
KRO1 131819Z 02006KT 00/02 A3032 RMK A01 T00-00-23  RH  085%=      5-min Rain = 0
KRO1 131820Z 02006KT 00/02 A3032 RMK A01 T00-00-22  RH  085%=      5-min Rain = 0
KRO1 131821Z 04008KT 00/02 A3032 RMK A01 T00000-21  RH  086%=      5-min Rain = 0
KRO1 131822Z 05006KT 00/M02 A3032 RMK A01 T00021019  RH  086%=      5-min Rain = 0
KRO1 131823Z 06005KT 00/M02 A3032 RMK A01 T00021020  RH  085%=      5-min Rain = 0
KRO1 131824Z 06005KT 00/M02 A3032 RMK A01 T00011023  RH  084%=      5-min Rain = 0
KRO1 131825Z 06006KT 00/02 A3032 RMK A01 T00000-23  RH  084%=      5-min Rain = 0
KRO1 131826Z 07006KT 00/M02 A3032 RMK A01 T00021018  RH  086%=      5-min Rain = 0
KRO1 131827Z 06004KT 00/M02 A3032 RMK A01 T00041017  RH  086%=      5-min Rain = 0
KRO1 131828Z 07004KT 00/M02 A3032 RMK A01 T00041019  RH  084%=      5-min Rain = 0
KRO1 131829Z 06004KT 00/M02 A3032 RMK A01 T00021024  RH  083%=      5-min Rain = 0
KRO1 131830Z 05007KT 00/M02 A3032 RMK A01 T00021022  RH  084%=      5-min Rain = 0
KRO1 131831Z 06007KT 00/M02 A3032 RMK A01 T00021019  RH  085%=      5-min Rain = 0
KRO1 131832Z 05005KT 00/M02 A3032 RMK A01 T00031019  RH  085%=      5-min Rain = 0
KRO1 131833Z 07007KT 00/M02 A3032 RMK A01 T00031020  RH  085%=      5-min Rain = 0
KRO1 131834Z 06007KT 00/M02 A3032 RMK A01 T00031019  RH  085%=      5-min Rain = 0
KRO1 131835Z 06005KT 00/M02 A3032 RMK A01 T00031020  RH  085%=      5-min Rain = 0
KRO1 131836Z 07004KT 00/M02 A3032 RMK A01 T00021021  RH  084%=      5-min Rain = 0
KRO1 131837Z 05004KT 00/M02 A3032 RMK A01 T00031021  RH  084%=      5-min Rain = 0
KRO1 131838Z 03006KT 00/M02 A3032 RMK A01 T00021020  RH  085%=      5-min Rain = 0
KRO1 131839Z 03007KT 00/M02 A3032 RMK A01 T00031020  RH  085%=      5-min Rain = 0
KRO1 131840Z 02005KT 00/M02 A3032 RMK A01 T00021023  RH  084%=      5-min Rain = 0
KRO1 131841Z 03004KT 00/M02 A3032 RMK A01 T00011021  RH  085%=      5-min Rain = 0
KRO1 131842Z 05004KT 00/M02 A3032 RMK A01 T00021022  RH  084%=      5-min Rain = 0
KRO1 131843Z 04004KT 00/M02 A3032 RMK A01 T00031018  RH  086%=      5-min Rain = 0
KRO1 131844Z 04004KT 00/M02 A3032 RMK A01 T00041019  RH  085%=      5-min Rain = 0
KRO1 131845Z 04004KT 00/M02 A3032 RMK A01 T00031021  RH  084%=      5-min Rain = 0
KRO1 131846Z 05003KT 00/M02 A3032 RMK A01 T00031022  RH  083%=      5-min Rain = 0
KRO1 131847Z 04002KT 00/M02 A3031 RMK A01 T00021022  RH  083%=      5-min Rain = 0
KRO1 131848Z 05004KT 00/M02 A3031 RMK A01 T00031021  RH  084%=      5-min Rain = 0
KRO1 131849Z 05006KT 00/M02 A3031 RMK A01 T00041019  RH  085%=      5-min Rain = 0
KRO1 131850Z 04006KT 00/M02 A3031 RMK A01 T00031021  RH  084%=      5-min Rain = 0
KRO1 131851Z 04005KT 00/M02 A3031 RMK A01 T00031020  RH  085%=      5-min Rain = 0
KRO1 131852Z 03004KT 00/M02 A3031 RMK A01 T00021022  RH  084%=      5-min Rain = 0
KRO1 131853Z 04003KT 00/M02 A3031 RMK A01 T00031021  RH  085%=      5-min Rain = 0
KRO1 131854Z 05003KT 00/M02 A3031 RMK A01 T00021021  RH  084%=      5-min Rain = 0
KRO1 131855Z 04003KT 00/M02 A3031 RMK A01 T00031023  RH  083%=      5-min Rain = 0
KRO1 131856Z 05004KT 00/M02 A3031 RMK A01 T00021022  RH  084%=      5-min Rain = 0
KRO1 131857Z 05004KT 00/M02 A3031 RMK A01 T00041017  RH  086%=      5-min Rain = 0
KRO1 131858Z 03004KT 01/M02 A3031 RMK A01 T00051016  RH  086%=      5-min Rain = 0
KRO1 131859Z 04005KT 01/M02 A3031 RMK A01 T00061015  RH  086%=      5-min Rain = 0
KRO1 131900Z 06005KT 01/M01 A3031 RMK A01 T00081012  RH  086%=      5-min Rain = 0
KRO1 131901Z 06005KT 01/M02 A3031 RMK A01 T00081017  RH  083%=      5-min Rain = 0
KRO1 131902Z 07004KT 01/M02 A3031 RMK A01 T00061021  RH  082%=      5-min Rain = 0
KRO1 131903Z 10005KT 01/M02 A3031 RMK A01 T00051019  RH  084%=      5-min Rain = 0
KRO1 131904Z 10003KT 01/M02 A3031 RMK A01 T00061019  RH  083%=      5-min Rain = 0
KRO1 131905Z 08001KT 01/M02 A3031 RMK A01 T00051021  RH  082%=      5-min Rain = 0
KRO1 131906Z 08001KT 00/M02 A303 RMK A01 T00041024  RH  081%=      5-min Rain = 0
KRO1 131907Z 08001KT 00/M02 A303 RMK A01 T00041024  RH  081%=      5-min Rain = 0
KRO1 131908Z 07001KT 00/M02 A303 RMK A01 T00041023  RH  082%=      5-min Rain = 0
KRO1 131909Z 06001KT 00/M02 A303 RMK A01 T00041023  RH  082%=      5-min Rain = 0
KRO1 131910Z 18000KT 00/M02 A303 RMK A01 T00041023  RH  082%=      5-min Rain = 0
KRO1 131911Z 02002KT 01/M02 A303 RMK A01 T00051021  RH  083%=      5-min Rain = 0
KRO1 131912Z 05003KT 01/M02 A303 RMK A01 T00061019  RH  084%=      5-min Rain = 0
KRO1 131913Z 01002KT 01/M02 A303 RMK A01 T00071017  RH  084%=      5-min Rain = 0
KRO1 131914Z 03002KT 01/M02 A303 RMK A01 T00071020  RH  082%=      5-min Rain = 0
KRO1 131915Z 09004KT 01/M02 A303 RMK A01 T00071020  RH  082%=      5-min Rain = 0
KRO1 131916Z 10005KT 01/M02 A303 RMK A01 T00061021  RH  082%=      5-min Rain = 0
KRO1 131917Z 09004KT 01/M02 A303 RMK A01 T00051022  RH  082%=      5-min Rain = 0
KRO1 131918Z 08004KT 01/M02 A303 RMK A01 T00051021  RH  083%=      5-min Rain = 0
KRO1 131919Z 08004KT 01/M02 A303 RMK A01 T00051021  RH  083%=      5-min Rain = 0
KRO1 131920Z 09005KT 01/M02 A303 RMK A01 T00061016  RH  085%=      5-min Rain = 0
KRO1 131921Z 10005KT 01/M02 A303 RMK A01 T00071017  RH  084%=      5-min Rain = 0
KRO1 131922Z 10003KT 01/M02 A303 RMK A01 T00061022  RH  082%=      5-min Rain = 0
KRO1 131923Z 11001KT 01/M02 A303 RMK A01 T00051022  RH  082%=      5-min Rain = 0
KRO1 131924Z 12002KT 01/M02 A303 RMK A01 T00051021  RH  083%=      5-min Rain = 0
KRO1 131925Z 12002KT 01/M02 A303 RMK A01 T00051023  RH  082%=      5-min Rain = 0
KRO1 131926Z 10002KT 01/M02 A303 RMK A01 T00051023  RH  082%=      5-min Rain = 0
KRO1 131927Z 08002KT 01/M02 A303 RMK A01 T00051021  RH  083%=      5-min Rain = 0
KRO1 131928Z 07001KT 01/M02 A303 RMK A01 T00051021  RH  083%=      5-min Rain = 0
KRO1 131929Z 06001KT 01/M02 A303 RMK A01 T00051023  RH  082%=      5-min Rain = 0
KRO1 131930Z 07002KT 01/M02 A303 RMK A01 T00051020  RH  083%=      5-min Rain = 0
KRO1 131931Z 06002KT 01/M02 A3029 RMK A01 T00071017  RH  084%=      5-min Rain = 0
KRO1 131932Z 05003KT 01/M02 A3029 RMK A01 T00081017  RH  084%=      5-min Rain = 0
KRO1 131933Z 05005KT 01/M02 A3029 RMK A01 T00081017  RH  083%=      5-min Rain = 0
KRO1 131934Z 06005KT 01/M02 A3029 RMK A01 T00071018  RH  083%=      5-min Rain = 0
KRO1 131935Z 07004KT 01/M02 A3029 RMK A01 T00061020  RH  082%=      5-min Rain = 0
KRO1 131936Z 07004KT 01/M02 A3029 RMK A01 T00051022  RH  082%=      5-min Rain = 0
KRO1 131937Z 07003KT 00/M02 A3029 RMK A01 T00041022  RH  083%=      5-min Rain = 0
KRO1 131938Z 06003KT 00/M02 A3029 RMK A01 T00041021  RH  083%=      5-min Rain = 0
KRO1 131939Z 04005KT 01/M02 A3029 RMK A01 T00051018  RH  085%=      5-min Rain = 0
KRO1 131940Z 05006KT 01/M02 A3029 RMK A01 T00051018  RH  085%=      5-min Rain = 0
KRO1 131941Z 06006KT 01/M02 A3029 RMK A01 T00051018  RH  085%=      5-min Rain = 0
KRO1 131942Z 06005KT 01/M02 A3029 RMK A01 T00051019  RH  084%=      5-min Rain = 0
KRO1 131943Z 08002KT 00/M02 A3029 RMK A01 T00041019  RH  084%=      5-min Rain = 0
KRO1 131944Z 07002KT 00/M02 A3029 RMK A01 T00041020  RH  084%=      5-min Rain = 0
KRO1 131945Z 07001KT 00/M02 A3029 RMK A01 T00041021  RH  083%=      5-min Rain = 0
KRO1 131946Z 07002KT 00/M02 A3029 RMK A01 T00041020  RH  084%=      5-min Rain = 0
KRO1 131947Z 08002KT 00/M02 A3028 RMK A01 T00041021  RH  083%=      5-min Rain = 0
KRO1 131948Z 04002KT 01/M02 A3028 RMK A01 T00051019  RH  084%=      5-min Rain = 0
KRO1 131949Z 06002KT 01/M02 A3028 RMK A01 T00051018  RH  084%=      5-min Rain = 0
KRO1 131950Z 06002KT 01/M02 A3028 RMK A01 T00061018  RH  084%=      5-min Rain = 0
KRO1 131951Z 06004KT 01/M02 A3028 RMK A01 T00061018  RH  084%=      5-min Rain = 0
KRO1 131952Z 06003KT 01/M02 A3028 RMK A01 T00061019  RH  084%=      5-min Rain = 0
KRO1 131953Z 08003KT 01/M02 A3028 RMK A01 T00051020  RH  084%=      5-min Rain = 0
KRO1 131954Z 09003KT 01/M02 A3028 RMK A01 T00051018  RH  085%=      5-min Rain = 0
KRO1 131955Z 09005KT 01/M02 A3028 RMK A01 T00061016  RH  085%=      5-min Rain = 0
KRO1 131956Z 12005KT 01/M01 A3028 RMK A01 T00081014  RH  086%=      5-min Rain = 0
KRO1 131957Z 12004KT 01/M02 A3028 RMK A01 T00081015  RH  085%=      5-min Rain = 0
KRO1 131958Z 09005KT 01/M01 A3028 RMK A01 T00091014  RH  085%=      5-min Rain = 0
KRO1 131959Z 07006KT 01/M01 A3028 RMK A01 T00091013  RH  085%=      5-min Rain = 0
KRO1 132000Z 09005KT 01/M02 A3028 RMK A01 T00091015  RH  084%=      5-min Rain = 0
KRO1 132001Z 10005KT 01/M02 A3028 RMK A01 T00071018  RH  083%=      5-min Rain = 0
KRO1 132002Z 10004KT 01/M02 A3028 RMK A01 T00061018  RH  084%=      5-min Rain = 0
KRO1 132003Z 06003KT 01/M02 A3028 RMK A01 T00071018  RH  084%=      5-min Rain = 0
KRO1 132004Z 06005KT 01/M02 A3028 RMK A01 T00071016  RH  085%=      5-min Rain = 0
KRO1 132005Z 08006KT 01/M02 A3028 RMK A01 T00071015  RH  085%=      5-min Rain = 0
KRO1 132006Z 07005KT 01/M02 A3028 RMK A01 T00071016  RH  084%=      5-min Rain = 0
KRO1 132007Z 07004KT 01/M02 A3028 RMK A01 T00061017  RH  084%=      5-min Rain = 0
KRO1 132008Z 06004KT 01/M02 A3028 RMK A01 T00071015  RH  085%=      5-min Rain = 0
KRO1 132009Z 07006KT 01/M02 A3028 RMK A01 T00071015  RH  085%=      5-min Rain = 0
KRO1 132010Z 06005KT 01/M02 A3028 RMK A01 T00081015  RH  085%=      5-min Rain = 0
KRO1 132011Z 06004KT 01/M02 A3028 RMK A01 T00071016  RH  084%=      5-min Rain = 0
KRO1 132012Z 06004KT 01/M02 A3028 RMK A01 T00061018  RH  084%=      5-min Rain = 0
KRO1 132013Z 05003KT 01/M02 A3028 RMK A01 T00061018  RH  084%=      5-min Rain = 0
KRO1 132014Z 03003KT 01/M02 A3028 RMK A01 T00061019  RH  084%=      5-min Rain = 0
KRO1 132015Z 05004KT 01/M02 A3028 RMK A01 T00061018  RH  084%=      5-min Rain = 0
KRO1 132016Z 05003KT 01/M02 A3028 RMK A01 T00061017  RH  085%=      5-min Rain = 0
KRO1 132017Z 06004KT 01/M02 A3028 RMK A01 T00071015  RH  085%=      5-min Rain = 0
KRO1 132018Z 06004KT 01/M01 A3028 RMK A01 T00071014  RH  085%=      5-min Rain = 0
KRO1 132019Z 09003KT 01/M01 A3028 RMK A01 T00081013  RH  086%=      5-min Rain = 0
KRO1 132020Z 10001KT 01/M02 A3028 RMK A01 T00081015  RH  084%=      5-min Rain = 0
KRO1 132021Z 07001KT 01/M02 A3028 RMK A01 T00081017  RH  083%=      5-min Rain = 0
KRO1 132022Z 05002KT 01/M02 A3028 RMK A01 T00091015  RH  084%=      5-min Rain = 0
KRO1 132023Z 04002KT 01/M02 A3028 RMK A01 T00091016  RH  084%=      5-min Rain = 0
KRO1 132024Z 06003KT 01/M02 A3028 RMK A01 T00081016  RH  084%=      5-min Rain = 0
KRO1 132025Z 10002KT 01/M02 A3028 RMK A01 T00081016  RH  084%=      5-min Rain = 0
KRO1 132026Z 04001KT 01/M02 A3028 RMK A01 T00081018  RH  083%=      5-min Rain = 0
KRO1 132027Z 04002KT 01/M02 A3028 RMK A01 T00071017  RH  084%=      5-min Rain = 0
KRO1 132028Z 07002KT 01/M02 A3028 RMK A01 T00081015  RH  084%=      5-min Rain = 0
KRO1 132029Z 10002KT 01/M02 A3028 RMK A01 T00081016  RH  084%=      5-min Rain = 0
KRO1 132030Z 14001KT 01/M02 A3028 RMK A01 T00081016  RH  084%=      5-min Rain = 0
KRO1 132031Z 16001KT 01/M02 A3028 RMK A01 T00081016  RH  083%=      5-min Rain = 0
KRO1 132032Z 16002KT 01/M02 A3027 RMK A01 T00091017  RH  083%=      5-min Rain = 0
KRO1 132033Z 16002KT 01/M02 A3027 RMK A01 T00101015  RH  083%=      5-min Rain = 0
KRO1 132034Z 15002KT 01/M02 A3027 RMK A01 T00111015  RH  083%=      5-min Rain = 0
KRO1 132035Z 14003KT 01/M02 A3027 RMK A01 T00121015  RH  083%=      5-min Rain = 0
KRO1 132036Z 14004KT 01/M02 A3027 RMK A01 T00121015  RH  082%=      5-min Rain = 0
KRO1 132037Z 15004KT 01/M02 A3027 RMK A01 T00121016  RH  082%=      5-min Rain = 0
KRO1 132038Z 15003KT 01/M02 A3027 RMK A01 T00111017  RH  081%=      5-min Rain = 0
KRO1 132039Z 14003KT 01/M02 A3027 RMK A01 T00111018  RH  081%=      5-min Rain = 0
KRO1 132040Z 12004KT 01/M02 A3027 RMK A01 T00111016  RH  082%=      5-min Rain = 0
KRO1 132041Z 11004KT 01/M01 A3027 RMK A01 T00121014  RH  083%=      5-min Rain = 0
KRO1 132042Z 08004KT 01/M02 A3027 RMK A01 T00121015  RH  082%=      5-min Rain = 0
KRO1 132043Z 06002KT 01/M01 A3027 RMK A01 T00121014  RH  083%=      5-min Rain = 0
KRO1 132044Z 07003KT 01/M02 A3027 RMK A01 T00121016  RH  082%=      5-min Rain = 0
KRO1 132045Z 08004KT 01/M02 A3027 RMK A01 T00111016  RH  082%=      5-min Rain = 0
KRO1 132046Z 08004KT 01/M02 A3027 RMK A01 T00111015  RH  083%=      5-min Rain = 0
KRO1 132047Z 08005KT 01/M01 A3027 RMK A01 T00121012  RH  084%=      5-min Rain = 0
KRO1 132048Z 08006KT 01/M01 A3027 RMK A01 T00121014  RH  083%=      5-min Rain = 0
KRO1 132049Z 09005KT 01/M01 A3027 RMK A01 T00121013  RH  083%=      5-min Rain = 0
KRO1 132050Z 09005KT 01/M01 A3027 RMK A01 T00111013  RH  084%=      5-min Rain = 0
KRO1 132051Z 09005KT 01/M01 A3027 RMK A01 T00111013  RH  084%=      5-min Rain = 0
KRO1 132052Z 09005KT 01/M01 A3027 RMK A01 T00121012  RH  084%=      5-min Rain = 0
KRO1 132053Z 08005KT 01/M01 A3027 RMK A01 T00121013  RH  084%=      5-min Rain = 0
KRO1 132054Z 10005KT 01/M01 A3027 RMK A01 T00121014  RH  083%=      5-min Rain = 0
KRO1 132055Z 10005KT 01/M01 A3027 RMK A01 T00121013  RH  084%=      5-min Rain = 0
KRO1 132056Z 10002KT 01/M01 A3027 RMK A01 T00121013  RH  083%=      5-min Rain = 0
KRO1 132057Z 14005KT 01/M01 A3027 RMK A01 T00121013  RH  083%=      5-min Rain = 0
KRO1 132058Z 15005KT 01/M01 A3027 RMK A01 T00131013  RH  083%=      5-min Rain = 0
KRO1 132059Z 14004KT 01/M01 A3027 RMK A01 T00131014  RH  082%=      5-min Rain = 0
KRO1 132100Z 14006KT 01/M01 A3027 RMK A01 T00141011  RH  083%=      5-min Rain = 0
KRO1 132101Z 14006KT 02/M01 A3027 RMK A01 T00151011  RH  083%=      5-min Rain = 0
KRO1 132102Z 15007KT 02/M01 A3027 RMK A01 T00151011  RH  083%=      5-min Rain = 0
KRO1 132103Z 13005KT 02/M01 A3027 RMK A01 T00151012  RH  082%=      5-min Rain = 0
KRO1 132104Z 13004KT 02/M01 A3027 RMK A01 T00151012  RH  082%=      5-min Rain = 0
KRO1 132105Z 14004KT 02/M01 A3027 RMK A01 T00151011  RH  083%=      5-min Rain = 0
KRO1 132106Z 14005KT 02/M01 A3027 RMK A01 T00151011  RH  083%=      5-min Rain = 0
KRO1 132107Z 13004KT 02/M01 A3027 RMK A01 T00161010  RH  083%=      5-min Rain = 0
KRO1 132108Z 13004KT 02/M01 A3027 RMK A01 T00151011  RH  083%=      5-min Rain = 0
KRO1 132109Z 15003KT 02/M01 A3027 RMK A01 T00151011  RH  083%=      5-min Rain = 0
KRO1 132110Z 14005KT 02/M01 A3027 RMK A01 T00151009  RH  084%=      5-min Rain = 0
KRO1 132111Z 14006KT 02/M01 A3027 RMK A01 T00161011  RH  082%=      5-min Rain = 0
KRO1 132112Z 13004KT 02/M01 A3027 RMK A01 T00161014  RH  081%=      5-min Rain = 0
KRO1 132113Z 16002KT 01/M02 A3027 RMK A01 T00141016  RH  081%=      5-min Rain = 0
KRO1 132114Z 16003KT 01/M01 A3027 RMK A01 T00141014  RH  082%=      5-min Rain = 0
KRO1 132115Z 13005KT 01/M01 A3027 RMK A01 T00141014  RH  082%=      5-min Rain = 0
KRO1 132116Z 12005KT 02/M01 A3027 RMK A01 T00151011  RH  083%=      5-min Rain = 0
KRO1 132117Z 12004KT 02/M01 A3027 RMK A01 T00151012  RH  082%=      5-min Rain = 0
KRO1 132118Z 12004KT 01/M01 A3027 RMK A01 T00141014  RH  081%=      5-min Rain = 0
KRO1 132119Z 12003KT 01/M01 A3027 RMK A01 T00141013  RH  082%=      5-min Rain = 0
KRO1 132120Z 10004KT 01/M01 A3027 RMK A01 T00141012  RH  083%=      5-min Rain = 0
KRO1 132121Z 14005KT 01/M01 A3027 RMK A01 T00141012  RH  083%=      5-min Rain = 0
KRO1 132122Z 13007KT 01/M01 A3026 RMK A01 T00141012  RH  083%=      5-min Rain = 0
KRO1 132123Z 13006KT 01/M01 A3026 RMK A01 T00141013  RH  082%=      5-min Rain = 0
KRO1 132124Z 12005KT 01/M01 A3026 RMK A01 T00141013  RH  082%=      5-min Rain = 0
KRO1 132125Z 11005KT 02/M01 A3026 RMK A01 T00151013  RH  082%=      5-min Rain = 0
KRO1 132126Z 11004KT 01/M01 A3026 RMK A01 T00141014  RH  082%=      5-min Rain = 0
KRO1 132127Z 09004KT 01/M01 A3026 RMK A01 T00131013  RH  082%=      5-min Rain = 0
KRO1 132128Z 12002KT 01/M01 A3026 RMK A01 T00131014  RH  082%=      5-min Rain = 0
KRO1 132129Z 14004KT 01/M01 A3026 RMK A01 T00131012  RH  083%=      5-min Rain = 0
KRO1 132130Z 11004KT 01/M01 A3027 RMK A01 T00141013  RH  083%=      5-min Rain = 0
KRO1 132131Z 10004KT 02/M01 A3027 RMK A01 T00151011  RH  083%=      5-min Rain = 0
KRO1 132132Z 11004KT 02/M01 A3027 RMK A01 T00151012  RH  082%=      5-min Rain = 0
KRO1 132133Z 12005KT 02/M01 A3026 RMK A01 T00151011  RH  083%=      5-min Rain = 0
KRO1 132134Z 13004KT 02/M01 A3026 RMK A01 T00151014  RH  081%=      5-min Rain = 0
KRO1 132135Z 13003KT 01/M02 A3026 RMK A01 T00141015  RH  081%=      5-min Rain = 0
KRO1 132136Z 12003KT 01/M02 A3026 RMK A01 T00131016  RH  081%=      5-min Rain = 0
KRO1 132137Z 13004KT 01/M02 A3026 RMK A01 T00131015  RH  082%=      5-min Rain = 0
KRO1 132138Z 15004KT 01/M01 A3026 RMK A01 T00131014  RH  082%=      5-min Rain = 0
KRO1 132139Z 14005KT 02/M01 A3026 RMK A01 T00151011  RH  083%=      5-min Rain = 0
KRO1 132140Z 14003KT 02/M01 A3026 RMK A01 T00161013  RH  082%=      5-min Rain = 0
KRO1 132141Z 14003KT 02/M01 A3026 RMK A01 T00151014  RH  081%=      5-min Rain = 0
KRO1 132142Z 13003KT 02/M01 A3027 RMK A01 T00161014  RH  081%=      5-min Rain = 0
KRO1 132143Z 13004KT 02/M01 A3027 RMK A01 T00161012  RH  082%=      5-min Rain = 0
KRO1 132144Z 12004KT 02/M01 A3027 RMK A01 T00161014  RH  080%=      5-min Rain = 0
KRO1 132145Z 14003KT 02/M02 A3027 RMK A01 T00151015  RH  080%=      5-min Rain = 0
KRO1 132146Z 13002KT 02/M01 A3027 RMK A01 T00151014  RH  081%=      5-min Rain = 0
KRO1 132147Z 13002KT 02/M02 A3027 RMK A01 T00151015  RH  081%=      5-min Rain = 0
KRO1 132148Z 10003KT 02/M01 A3027 RMK A01 T00151014  RH  081%=      5-min Rain = 0
KRO1 132149Z 08004KT 02/M01 A3027 RMK A01 T00151013  RH  082%=      5-min Rain = 0
KRO1 132150Z 06004KT 02/M01 A3027 RMK A01 T00161009  RH  083%=      5-min Rain = 0
KRO1 132151Z 06004KT 02/M01 A3027 RMK A01 T00161011  RH  082%=      5-min Rain = 0
KRO1 132152Z 09006KT 02/M01 A3027 RMK A01 T00161012  RH  082%=      5-min Rain = 0
KRO1 132153Z 10005KT 02/M01 A3027 RMK A01 T00151012  RH  082%=      5-min Rain = 0
KRO1 132154Z 10004KT 02/M02 A3027 RMK A01 T00151015  RH  081%=      5-min Rain = 0
KRO1 132155Z 11003KT 01/M02 A3027 RMK A01 T00141015  RH  081%=      5-min Rain = 0
KRO1 132156Z 09003KT 01/M02 A3027 RMK A01 T00131015  RH  081%=      5-min Rain = 0
KRO1 132157Z 10003KT 01/M01 A3027 RMK A01 T00131013  RH  082%=      5-min Rain = 0
KRO1 132158Z 10004KT 02/M01 A3027 RMK A01 T00151012  RH  083%=      5-min Rain = 0
KRO1 132159Z 10002KT 01/M02 A3027 RMK A01 T00141015  RH  081%=      5-min Rain = 0
KRO1 132200Z 00000KT 01/M02 A3027 RMK A01 T00131018  RH  080%=      5-min Rain = 0
KRO1 132201Z 00000KT 01/M02 A3027 RMK A01 T00131018  RH  080%=      5-min Rain = 0
KRO1 132202Z 00000KT 01/M02 A3027 RMK A01 T00131018  RH  080%=      5-min Rain = 0
KRO1 132203Z 03000KT 01/M02 A3027 RMK A01 T00131017  RH  080%=      5-min Rain = 0
KRO1 132204Z 16000KT 01/M02 A3027 RMK A01 T00141015  RH  081%=      5-min Rain = 0
KRO1 132205Z 10001KT 02/M01 A3027 RMK A01 T00151014  RH  081%=      5-min Rain = 0
KRO1 132206Z 12001KT 02/M02 A3027 RMK A01 T00151016  RH  080%=      5-min Rain = 0
KRO1 132207Z 11003KT 02/M01 A3027 RMK A01 T00161013  RH  081%=      5-min Rain = 0
KRO1 132208Z 11004KT 02/M01 A3027 RMK A01 T00171011  RH  082%=      5-min Rain = 0
KRO1 132209Z 12006KT 02/M01 A3027 RMK A01 T00171011  RH  082%=      5-min Rain = 0
KRO1 132210Z 11006KT 02/M01 A3027 RMK A01 T00171013  RH  081%=      5-min Rain = 0
KRO1 132211Z 11005KT 02/M01 A3027 RMK A01 T00161014  RH  081%=      5-min Rain = 0
KRO1 132212Z 12005KT 02/M01 A3027 RMK A01 T00151014  RH  081%=      5-min Rain = 0
KRO1 132213Z 12003KT 02/M01 A3027 RMK A01 T00151014  RH  081%=      5-min Rain = 0
KRO1 132214Z 13003KT 02/M01 A3027 RMK A01 T00151014  RH  081%=      5-min Rain = 0
KRO1 132215Z 14002KT 02/M01 A3027 RMK A01 T00151014  RH  081%=      5-min Rain = 0
KRO1 132216Z 14003KT 02/M02 A3027 RMK A01 T00161015  RH  080%=      5-min Rain = 0
KRO1 132217Z 14002KT 02/M02 A3027 RMK A01 T00161016  RH  079%=      5-min Rain = 0
KRO1 132218Z 14001KT 02/M02 A3027 RMK A01 T00151018  RH  079%=      5-min Rain = 0
KRO1 132219Z 13000KT 01/M02 A3027 RMK A01 T00141016  RH  080%=      5-min Rain = 0
KRO1 132220Z 10000KT 02/M01 A3027 RMK A01 T00151013  RH  082%=      5-min Rain = 0
KRO1 132221Z 08002KT 02/M01 A3027 RMK A01 T00161011  RH  082%=      5-min Rain = 0
KRO1 132222Z 09005KT 02/M01 A3027 RMK A01 T00171009  RH  083%=      5-min Rain = 0
KRO1 132223Z 09004KT 02/M01 A3027 RMK A01 T00171012  RH  081%=      5-min Rain = 0
KRO1 132224Z 10004KT 02/M01 A3027 RMK A01 T00161013  RH  081%=      5-min Rain = 0
KRO1 132225Z 11004KT 02/M01 A3027 RMK A01 T00161012  RH  082%=      5-min Rain = 0
KRO1 132226Z 12005KT 02/M01 A3027 RMK A01 T00161010  RH  083%=      5-min Rain = 0
KRO1 132227Z 09005KT 02/M01 A3027 RMK A01 T00161012  RH  082%=      5-min Rain = 0
KRO1 132228Z 08007KT 02/M01 A3027 RMK A01 T00161011  RH  082%=      5-min Rain = 0
KRO1 132229Z 08007KT 02/M01 A3027 RMK A01 T00161011  RH  082%=      5-min Rain = 0
KRO1 132230Z 08007KT 02/M01 A3027 RMK A01 T00161010  RH  083%=      5-min Rain = 0
KRO1 132231Z 07007KT 02/M01 A3027 RMK A01 T00161013  RH  081%=      5-min Rain = 0
KRO1 132232Z 06008KT 02/M01 A3027 RMK A01 T00151014  RH  081%=      5-min Rain = 0
KRO1 132233Z 06006KT 01/M01 A3027 RMK A01 T00141014  RH  082%=      5-min Rain = 0
KRO1 132234Z 07006KT 01/M01 A3027 RMK A01 T00131014  RH  082%=      5-min Rain = 0
KRO1 132235Z 07005KT 01/M01 A3027 RMK A01 T00141013  RH  083%=      5-min Rain = 0
KRO1 132236Z 07004KT 01/M02 A3027 RMK A01 T00131015  RH  081%=      5-min Rain = 0
KRO1 132237Z 08004KT 01/M02 A3027 RMK A01 T00121017  RH  081%=      5-min Rain = 0
KRO1 132238Z 09003KT 01/M02 A3027 RMK A01 T00121019  RH  080%=      5-min Rain = 0
KRO1 132239Z 07004KT 01/M02 A3027 RMK A01 T00121018  RH  081%=      5-min Rain = 0
KRO1 132240Z 08004KT 01/M02 A3027 RMK A01 T00111017  RH  081%=      5-min Rain = 0
KRO1 132241Z 08002KT 01/M02 A3027 RMK A01 T00121018  RH  081%=      5-min Rain = 0
KRO1 132242Z 09000KT 01/M02 A3027 RMK A01 T00111019  RH  080%=      5-min Rain = 0
KRO1 132243Z 00000KT 01/M02 A3027 RMK A01 T00111019  RH  080%=      5-min Rain = 0
KRO1 132244Z 09000KT 01/M02 A3027 RMK A01 T00111020  RH  080%=      5-min Rain = 0
KRO1 132245Z 04002KT 01/M02 A3027 RMK A01 T00121018  RH  080%=      5-min Rain = 0
KRO1 132246Z 05002KT 01/M02 A3027 RMK A01 T00121017  RH  081%=      5-min Rain = 0
KRO1 132247Z 08002KT 01/M02 A3027 RMK A01 T00121016  RH  081%=      5-min Rain = 0
KRO1 132248Z 08002KT 01/M02 A3027 RMK A01 T00131015  RH  082%=      5-min Rain = 0
KRO1 132249Z 09002KT 01/M02 A3027 RMK A01 T00131015  RH  082%=      5-min Rain = 0
KRO1 132250Z 06003KT 01/M02 A3027 RMK A01 T00141015  RH  081%=      5-min Rain = 0
KRO1 132251Z 04003KT 01/M02 A3027 RMK A01 T00141016  RH  081%=      5-min Rain = 0
KRO1 132252Z 06003KT 01/M02 A3027 RMK A01 T00141017  RH  080%=      5-min Rain = 0
KRO1 132253Z 10004KT 01/M02 A3027 RMK A01 T00141015  RH  081%=      5-min Rain = 0
KRO1 132254Z 11004KT 01/M01 A3027 RMK A01 T00141014  RH  081%=      5-min Rain = 0
KRO1 132255Z 09004KT 01/M02 A3027 RMK A01 T00141016  RH  081%=      5-min Rain = 0
KRO1 132256Z 09004KT 01/M01 A3027 RMK A01 T00141013  RH  082%=      5-min Rain = 0
KRO1 132257Z 08004KT 02/M01 A3027 RMK A01 T00151014  RH  081%=      5-min Rain = 0
KRO1 132258Z 08005KT 02/M01 A3027 RMK A01 T00151013  RH  082%=      5-min Rain = 0
KRO1 132259Z 08007KT 02/M01 A3027 RMK A01 T00151014  RH  081%=      5-min Rain = 0
KRO1 132300Z 07007KT 02/M02 A3027 RMK A01 T00151016  RH  080%=      5-min Rain = 0
KRO1 132301Z 07006KT 01/M02 A3027 RMK A01 T00141017  RH  080%=      5-min Rain = 0
KRO1 132302Z 07006KT 01/M02 A3027 RMK A01 T00141017  RH  080%=      5-min Rain = 0
KRO1 132303Z 08006KT 01/M02 A3027 RMK A01 T00131018  RH  080%=      5-min Rain = 0
KRO1 132304Z 07006KT 01/M02 A3027 RMK A01 T00131018  RH  080%=      5-min Rain = 0
KRO1 132305Z 08005KT 01/M02 A3027 RMK A01 T00121020  RH  079%=      5-min Rain = 0
KRO1 132306Z 08004KT 01/M02 A3027 RMK A01 T00121020  RH  079%=      5-min Rain = 0
KRO1 132307Z 10003KT 01/M02 A3027 RMK A01 T00111021  RH  079%=      5-min Rain = 0
KRO1 132308Z 10003KT 01/M02 A3027 RMK A01 T00101021  RH  079%=      5-min Rain = 0
KRO1 132309Z 09002KT 01/M02 A3027 RMK A01 T00101020  RH  080%=      5-min Rain = 0
KRO1 132310Z 10003KT 01/M02 A3027 RMK A01 T00101021  RH  080%=      5-min Rain = 0
KRO1 132311Z 13003KT 01/M02 A3027 RMK A01 T00111019  RH  081%=      5-min Rain = 0
KRO1 132312Z 12003KT 01/M02 A3027 RMK A01 T00111019  RH  080%=      5-min Rain = 0
KRO1 132313Z 12003KT 01/M02 A3027 RMK A01 T00111019  RH  080%=      5-min Rain = 0
KRO1 132314Z 12003KT 01/M02 A3027 RMK A01 T00121018  RH  080%=      5-min Rain = 0
KRO1 132315Z 14003KT 01/M02 A3027 RMK A01 T00121019  RH  080%=      5-min Rain = 0
KRO1 132316Z 14003KT 01/M02 A3027 RMK A01 T00121020  RH  080%=      5-min Rain = 0
KRO1 132317Z 13003KT 01/M02 A3027 RMK A01 T00121020  RH  079%=      5-min Rain = 0
KRO1 132318Z 11003KT 01/M02 A3027 RMK A01 T00121020  RH  079%=      5-min Rain = 0
KRO1 132319Z 10003KT 01/M02 A3027 RMK A01 T00121019  RH  080%=      5-min Rain = 0
KRO1 132320Z 11004KT 01/M02 A3027 RMK A01 T00121017  RH  081%=      5-min Rain = 0
KRO1 132321Z 12003KT 01/M02 A3027 RMK A01 T00121017  RH  081%=      5-min Rain = 0
KRO1 132322Z 12004KT 01/M02 A3027 RMK A01 T00121018  RH  080%=      5-min Rain = 0
KRO1 132323Z 12003KT 01/M02 A3027 RMK A01 T00121019  RH  080%=      5-min Rain = 0
KRO1 132324Z 14004KT 01/M02 A3027 RMK A01 T00131019  RH  079%=      5-min Rain = 0
KRO1 132325Z 15003KT 02/M02 A3027 RMK A01 T00151015  RH  081%=      5-min Rain = 0
KRO1 132326Z 13004KT 02/M01 A3027 RMK A01 T00161014  RH  081%=      5-min Rain = 0
KRO1 132327Z 12004KT 02/M02 A3027 RMK A01 T00171015  RH  080%=      5-min Rain = 0
KRO1 132328Z 12003KT 02/M02 A3027 RMK A01 T00161018  RH  078%=      5-min Rain = 0
KRO1 132329Z 13002KT 02/M02 A3027 RMK A01 T00151020  RH  078%=      5-min Rain = 0
KRO1 132330Z 13004KT 01/M02 A3027 RMK A01 T00141020  RH  078%=      5-min Rain = 0
KRO1 132331Z 13004KT 01/M02 A3027 RMK A01 T00141018  RH  079%=      5-min Rain = 0
KRO1 132332Z 13005KT 01/M02 A3027 RMK A01 T00141017  RH  079%=      5-min Rain = 0
KRO1 132333Z 13005KT 02/M02 A3027 RMK A01 T00151017  RH  079%=      5-min Rain = 0
KRO1 132334Z 12004KT 02/M02 A3027 RMK A01 T00161018  RH  079%=      5-min Rain = 0
KRO1 132335Z 13003KT 02/M02 A3027 RMK A01 T00161018  RH  079%=      5-min Rain = 0
KRO1 132336Z 14003KT 02/M02 A3027 RMK A01 T00161015  RH  080%=      5-min Rain = 0
KRO1 132337Z 15004KT 02/M02 A3027 RMK A01 T00171015  RH  079%=      5-min Rain = 0
KRO1 132338Z 15003KT 02/M02 A3027 RMK A01 T00171016  RH  078%=      5-min Rain = 0
KRO1 132339Z 14002KT 02/M02 A3027 RMK A01 T00181016  RH  078%=      5-min Rain = 0
KRO1 132340Z 12003KT 02/M02 A3027 RMK A01 T00181016  RH  078%=      5-min Rain = 0
KRO1 132341Z 09005KT 02/M02 A3027 RMK A01 T00181015  RH  079%=      5-min Rain = 0
KRO1 132342Z 09005KT 02/M02 A3027 RMK A01 T00171016  RH  078%=      5-min Rain = 0
KRO1 132343Z 10005KT 02/M02 A3027 RMK A01 T00171016  RH  079%=      5-min Rain = 0
KRO1 132344Z 09005KT 02/M02 A3027 RMK A01 T00161015  RH  080%=      5-min Rain = 0
KRO1 132345Z 09006KT 02/M02 A3027 RMK A01 T00161015  RH  079%=      5-min Rain = 0
KRO1 132346Z 12005KT 02/M01 A3027 RMK A01 T00171012  RH  081%=      5-min Rain = 0
KRO1 132347Z 12005KT 02/M01 A3027 RMK A01 T00171013  RH  080%=      5-min Rain = 0
KRO1 132348Z 11007KT 02/M02 A3027 RMK A01 T00171016  RH  079%=      5-min Rain = 0
KRO1 132349Z 09005KT 02/M02 A3027 RMK A01 T00161016  RH  079%=      5-min Rain = 0
KRO1 132350Z 11006KT 02/M02 A3027 RMK A01 T00161015  RH  080%=      5-min Rain = 0
KRO1 132351Z 11006KT 02/M02 A3027 RMK A01 T00151015  RH  080%=      5-min Rain = 0
KRO1 132352Z 10006KT 02/M02 A3027 RMK A01 T00151016  RH  080%=      5-min Rain = 0
KRO1 132353Z 10005KT 01/M02 A3027 RMK A01 T00141015  RH  081%=      5-min Rain = 0
KRO1 132354Z 09006KT 01/M02 A3027 RMK A01 T00141015  RH  081%=      5-min Rain = 0
KRO1 132355Z 09006KT 01/M02 A3027 RMK A01 T00141015  RH  081%=      5-min Rain = 0
KRO1 132356Z 08005KT 01/M02 A3027 RMK A01 T00141016  RH  081%=      5-min Rain = 0
KRO1 132357Z 09005KT 01/M02 A3027 RMK A01 T00141017  RH  080%=      5-min Rain = 0
KRO1 132358Z 09005KT 01/M02 A3027 RMK A01 T00141017  RH  080%=      5-min Rain = 0
KRO1 132359Z 09005KT 01/M02 A3027 RMK A01 T00141018  RH  080%=      5-min Rain = 0
KRO1 140000Z 08005KT 01/M02 A3027 RMK A01 T00131018  RH  080%=      5-min Rain = 0
KRO1 140001Z 09005KT 01/M02 A3027 RMK A01 T00131017  RH  080%=      5-min Rain = 0
KRO1 140002Z 09005KT 01/M02 A3027 RMK A01 T00131017  RH  081%=      5-min Rain = 0
KRO1 140003Z 10004KT 01/M02 A3027 RMK A01 T00121017  RH  081%=      5-min Rain = 0
KRO1 140004Z 09004KT 01/M02 A3027 RMK A01 T00121017  RH  081%=      5-min Rain = 0
KRO1 140005Z 10004KT 01/M02 A3027 RMK A01 T00121016  RH  081%=      5-min Rain = 0
KRO1 140006Z 10005KT 01/M02 A3027 RMK A01 T00121016  RH  082%=      5-min Rain = 0
KRO1 140007Z 10006KT 01/M02 A3027 RMK A01 T00121016  RH  082%=      5-min Rain = 0
KRO1 140008Z 09007KT 01/M02 A3027 RMK A01 T00111016  RH  082%=      5-min Rain = 0
KRO1 140009Z 09007KT 01/M02 A3027 RMK A01 T00111016  RH  082%=      5-min Rain = 0
KRO1 140010Z 09008KT 01/M02 A3027 RMK A01 T00111016  RH  082%=      5-min Rain = 0
KRO1 140011Z 09007KT 01/M02 A3027 RMK A01 T00101017  RH  082%=      5-min Rain = 0
KRO1 140012Z 09006KT 01/M02 A3027 RMK A01 T00091017  RH  082%=      5-min Rain = 0
KRO1 140013Z 08007KT 01/M02 A3027 RMK A01 T00091017  RH  083%=      5-min Rain = 0
KRO1 140014Z 08008KT 01/M02 A3027 RMK A01 T00091017  RH  083%=      5-min Rain = 0
KRO1 140015Z 08007KT 01/M02 A3027 RMK A01 T00091017  RH  083%=      5-min Rain = 0
KRO1 140016Z 08008KT 01/M02 A3027 RMK A01 T00081017  RH  083%=      5-min Rain = 0
KRO1 140017Z 08008KT 01/M02 A3027 RMK A01 T00081018  RH  083%=      5-min Rain = 0
KRO1 140018Z 08008KT 01/M02 A3027 RMK A01 T00071018  RH  083%=      5-min Rain = 0
KRO1 140019Z 08008KT 01/M02 A3027 RMK A01 T00071018  RH  083%=      5-min Rain = 0
KRO1 140020Z 08007KT 01/M02 A3028 RMK A01 T00071019  RH  083%=      5-min Rain = 0
KRO1 140021Z 08008KT 01/M02 A3028 RMK A01 T00071018  RH  083%=      5-min Rain = 0
KRO1 140022Z 08007KT 01/M02 A3028 RMK A01 T00061019  RH  084%=      5-min Rain = 0
KRO1 140023Z 08007KT 01/M02 A3028 RMK A01 T00061018  RH  084%=      5-min Rain = 0
KRO1 140024Z 08007KT 01/M02 A3028 RMK A01 T00061018  RH  084%=      5-min Rain = 0
KRO1 140025Z 09006KT 01/M02 A3028 RMK A01 T00051018  RH  084%=      5-min Rain = 0
KRO1 140026Z 09006KT 01/M02 A3028 RMK A01 T00051017  RH  085%=      5-min Rain = 0
KRO1 140027Z 09007KT 00/M02 A3028 RMK A01 T00041017  RH  086%=      5-min Rain = 0
KRO1 140028Z 09006KT 00/M02 A3028 RMK A01 T00041017  RH  086%=      5-min Rain = 0
KRO1 140029Z 09006KT 00/M02 A3028 RMK A01 T00041018  RH  086%=      5-min Rain = 0
KRO1 140030Z 09006KT 00/M02 A3028 RMK A01 T00031018  RH  086%=      5-min Rain = 0
KRO1 140031Z 09006KT 00/M02 A3028 RMK A01 T00031019  RH  085%=      5-min Rain = 0
KRO1 140032Z 09006KT 00/M02 A3028 RMK A01 T00031019  RH  085%=      5-min Rain = 0
KRO1 140033Z 10006KT 00/M02 A3028 RMK A01 T00031019  RH  085%=      5-min Rain = 0
KRO1 140034Z 09006KT 00/M02 A3028 RMK A01 T00031019  RH  085%=      5-min Rain = 0
KRO1 140035Z 10007KT 00/M02 A3028 RMK A01 T00031019  RH  086%=      5-min Rain = 0
KRO1 140036Z 10007KT 00/M02 A3028 RMK A01 T00031019  RH  086%=      5-min Rain = 0
KRO1 140037Z 10007KT 00/M02 A3028 RMK A01 T00021019  RH  085%=      5-min Rain = 0
KRO1 140038Z 10007KT 00/M02 A3028 RMK A01 T00021019  RH  085%=      5-min Rain = 0
KRO1 140039Z 10006KT 00/M02 A3028 RMK A01 T00021019  RH  085%=      5-min Rain = 0
KRO1 140040Z 10006KT 00/M02 A3028 RMK A01 T00021020  RH  085%=      5-min Rain = 0
KRO1 140041Z 10006KT 00/M02 A3028 RMK A01 T00021020  RH  085%=      5-min Rain = 0
KRO1 140042Z 10007KT 00/M02 A3028 RMK A01 T00021020  RH  086%=      5-min Rain = 0
KRO1 140043Z 10007KT 00/M02 A3028 RMK A01 T00021020  RH  086%=      5-min Rain = 0
KRO1 140044Z 10006KT 00/M02 A3028 RMK A01 T00021019  RH  086%=      5-min Rain = 0
KRO1 140045Z 10007KT 00/M02 A3028 RMK A01 T00011019  RH  086%=      5-min Rain = 0
KRO1 140046Z 10008KT 00/M02 A3028 RMK A01 T00011019  RH  086%=      5-min Rain = 0
KRO1 140047Z 10007KT 00/M02 A3028 RMK A01 T00011019  RH  086%=      5-min Rain = 0
KRO1 140048Z 10007KT 00/M02 A3028 RMK A01 T00011019  RH  086%=      5-min Rain = 0
KRO1 140049Z 10007KT 00/02 A3028 RMK A01 T00000-19  RH  087%=      5-min Rain = 0
KRO1 140050Z 10006KT 00/02 A3028 RMK A01 T00000-19  RH  087%=      5-min Rain = 0
KRO1 140051Z 10007KT 00/02 A3028 RMK A01 T00000-19  RH  087%=      5-min Rain = 0
KRO1 140052Z 10006KT 00/02 A3028 RMK A01 T00-00-19  RH  087%=      5-min Rain = 0
KRO1 140053Z 09007KT 00/02 A3028 RMK A01 T00-00-19  RH  087%=      5-min Rain = 0
KRO1 140054Z 09006KT 00/02 A3028 RMK A01 T00000-19  RH  087%=      5-min Rain = 0
KRO1 140055Z 09006KT 00/02 A3028 RMK A01 T00000-19  RH  087%=      5-min Rain = 0
KRO1 140056Z 10006KT 00/02 A3028 RMK A01 T00-00-19  RH  087%=      5-min Rain = 0
KRO1 140057Z 09006KT M00/M02 A3028 RMK A01 T10011019  RH  087%=      5-min Rain = 0
KRO1 140058Z 10006KT 00/02 A3028 RMK A01 T00-00-19  RH  088%=      5-min Rain = 0
KRO1 140059Z 10006KT M00/M02 A3028 RMK A01 T10011019  RH  088%=      5-min Rain = 0
KRO1 140100Z 10006KT M00/M02 A3028 RMK A01 T10011019  RH  088%=      5-min Rain = 0
KRO1 140101Z 10006KT M00/M02 A3028 RMK A01 T10011019  RH  088%=      5-min Rain = 0
KRO1 140102Z 09005KT M00/M02 A3028 RMK A01 T10011019  RH  088%=      5-min Rain = 0
KRO1 140103Z 09005KT M00/M02 A3028 RMK A01 T10011019  RH  088%=      5-min Rain = 0
KRO1 140104Z 09005KT M00/M02 A3028 RMK A01 T10011018  RH  088%=      5-min Rain = 0
KRO1 140105Z 09005KT M00/M02 A3028 RMK A01 T10011018  RH  089%=      5-min Rain = 0
KRO1 140106Z 10005KT M00/M02 A3028 RMK A01 T10021018  RH  089%=      5-min Rain = 0
KRO1 140107Z 10006KT M00/M02 A3028 RMK A01 T10021018  RH  089%=      5-min Rain = 0
KRO1 140108Z 10006KT M00/M02 A3029 RMK A01 T10021019  RH  089%=      5-min Rain = 0
KRO1 140109Z 10006KT M00/M02 A3029 RMK A01 T10021019  RH  089%=      5-min Rain = 0
KRO1 140110Z 10005KT M00/M02 A3029 RMK A01 T10021019  RH  089%=      5-min Rain = 0
KRO1 140111Z 10005KT M00/M02 A3029 RMK A01 T10031019  RH  088%=      5-min Rain = 0
KRO1 140112Z 10005KT M00/M02 A3029 RMK A01 T10031020  RH  088%=      5-min Rain = 0
KRO1 140113Z 10005KT M00/M02 A3029 RMK A01 T10021019  RH  088%=      5-min Rain = 0
KRO1 140114Z 10005KT M00/M02 A3029 RMK A01 T10031020  RH  088%=      5-min Rain = 0
KRO1 140115Z 10005KT M00/M02 A3029 RMK A01 T10031019  RH  088%=      5-min Rain = 0
KRO1 140116Z 10005KT M00/M02 A3029 RMK A01 T10031020  RH  089%=      5-min Rain = 0
KRO1 140117Z 10005KT M00/M02 A3029 RMK A01 T10031020  RH  089%=      5-min Rain = 0
KRO1 140118Z 10005KT M00/M02 A3029 RMK A01 T10031019  RH  089%=      5-min Rain = 0
KRO1 140119Z 10005KT M00/M02 A3029 RMK A01 T10031019  RH  089%=      5-min Rain = 0
KRO1 140120Z 09005KT M00/M02 A3029 RMK A01 T10041019  RH  089%=      5-min Rain = 0
KRO1 140121Z 09005KT M00/M02 A3029 RMK A01 T10041019  RH  089%=      5-min Rain = 0
KRO1 140122Z 09005KT M00/M02 A3029 RMK A01 T10041019  RH  090%=      5-min Rain = 0
KRO1 140123Z 09005KT M00/M02 A3029 RMK A01 T10041019  RH  090%=      5-min Rain = 0
KRO1 140124Z 08005KT M00/M02 A3029 RMK A01 T10041019  RH  090%=      5-min Rain = 0
KRO1 140125Z 08004KT M00/M02 A3029 RMK A01 T10041019  RH  090%=      5-min Rain = 0
KRO1 140126Z 08005KT M00/M02 A3029 RMK A01 T10041019  RH  090%=      5-min Rain = 0
KRO1 140127Z 08005KT M00/M02 A3029 RMK A01 T10041019  RH  090%=      5-min Rain = 0
KRO1 140128Z 08005KT M00/M02 A3029 RMK A01 T10041018  RH  090%=      5-min Rain = 0
KRO1 140129Z 08005KT M00/M02 A3029 RMK A01 T10041018  RH  090%=      5-min Rain = 0
KRO1 140130Z 08005KT M01/M02 A3029 RMK A01 T10051018  RH  091%=      5-min Rain = 0
KRO1 140131Z 08005KT M01/M02 A3029 RMK A01 T10051019  RH  091%=      5-min Rain = 0
KRO1 140132Z 08005KT M01/M02 A3029 RMK A01 T10051019  RH  090%=      5-min Rain = 0
KRO1 140133Z 08005KT M01/M02 A3029 RMK A01 T10051019  RH  090%=      5-min Rain = 0
KRO1 140134Z 08005KT M01/M02 A3029 RMK A01 T10061020  RH  090%=      5-min Rain = 0
KRO1 140135Z 08005KT M01/M02 A3029 RMK A01 T10061019  RH  091%=      5-min Rain = 0
KRO1 140136Z 08005KT M01/M02 A303 RMK A01 T10061020  RH  091%=      5-min Rain = 0
KRO1 140137Z 08005KT M01/M02 A303 RMK A01 T10061019  RH  091%=      5-min Rain = 0
KRO1 140138Z 08005KT M01/M02 A303 RMK A01 T10061020  RH  091%=      5-min Rain = 0
KRO1 140139Z 08004KT M01/M02 A303 RMK A01 T10071020  RH  091%=      5-min Rain = 0
KRO1 140140Z 08004KT M01/M02 A303 RMK A01 T10071020  RH  091%=      5-min Rain = 0
KRO1 140141Z 08004KT M01/M02 A303 RMK A01 T10071020  RH  091%=      5-min Rain = 0
KRO1 140142Z 08004KT M01/M02 A303 RMK A01 T10081020  RH  092%=      5-min Rain = 0
KRO1 140143Z 08004KT M01/M02 A303 RMK A01 T10081020  RH  092%=      5-min Rain = 0
KRO1 140144Z 08004KT M01/M02 A303 RMK A01 T10071019  RH  092%=      5-min Rain = 0
KRO1 140145Z 08004KT M01/M02 A303 RMK A01 T10081019  RH  092%=      5-min Rain = 0
KRO1 140146Z 08004KT M01/M02 A303 RMK A01 T10081019  RH  092%=      5-min Rain = 0
KRO1 140147Z 08004KT M01/M02 A303 RMK A01 T10081019  RH  093%=      5-min Rain = 0
KRO1 140148Z 08004KT M01/M02 A303 RMK A01 T10081019  RH  093%=      5-min Rain = 0
KRO1 140149Z 08004KT M01/M02 A303 RMK A01 T10081019  RH  093%=      5-min Rain = 0
KRO1 140150Z 07005KT M01/M02 A303 RMK A01 T10091019  RH  093%=      5-min Rain = 0
KRO1 140151Z 07004KT M01/M02 A303 RMK A01 T10091019  RH  093%=      5-min Rain = 0
KRO1 140152Z 07004KT M01/M02 A303 RMK A01 T10091019  RH  093%=      5-min Rain = 0
KRO1 140153Z 07004KT M01/M02 A303 RMK A01 T10091019  RH  093%=      5-min Rain = 0
KRO1 140154Z 07004KT M01/M02 A303 RMK A01 T10091019  RH  093%=      5-min Rain = 0
KRO1 140155Z 07004KT M01/M02 A303 RMK A01 T10091019  RH  093%=      5-min Rain = 0
KRO1 140156Z 07004KT M01/M02 A303 RMK A01 T10091019  RH  093%=      5-min Rain = 0
KRO1 140157Z 07004KT M01/M02 A303 RMK A01 T10091019  RH  093%=      5-min Rain = 0
KRO1 140158Z 07004KT M01/M02 A303 RMK A01 T10091019  RH  093%=      5-min Rain = 0
KRO1 140159Z 06004KT M01/M02 A303 RMK A01 T10091019  RH  093%=      5-min Rain = 0
KRO1 140200Z 07004KT M01/M02 A303 RMK A01 T10091019  RH  093%=      5-min Rain = 0
KRO1 140201Z 06005KT M01/M02 A303 RMK A01 T10091018  RH  093%=      5-min Rain = 0
KRO1 140202Z 06005KT M01/M02 A303 RMK A01 T10091018  RH  093%=      5-min Rain = 0
KRO1 140203Z 06005KT M01/M02 A303 RMK A01 T10091018  RH  093%=      5-min Rain = 0
KRO1 140204Z 07005KT M01/M02 A3031 RMK A01 T10091018  RH  093%=      5-min Rain = 0
KRO1 140205Z 07005KT M01/M02 A3031 RMK A01 T10081018  RH  093%=      5-min Rain = 0
KRO1 140206Z 07005KT M01/M02 A3031 RMK A01 T10081017  RH  093%=      5-min Rain = 0
KRO1 140207Z 07005KT M01/M02 A303 RMK A01 T10081018  RH  093%=      5-min Rain = 0
KRO1 140208Z 07005KT M01/M02 A303 RMK A01 T10081018  RH  093%=      5-min Rain = 0
KRO1 140209Z 07005KT M01/M02 A303 RMK A01 T10071018  RH  093%=      5-min Rain = 0
KRO1 140210Z 07005KT M01/M02 A3031 RMK A01 T10071018  RH  092%=      5-min Rain = 0
KRO1 140211Z 07005KT M01/M02 A3031 RMK A01 T10071018  RH  092%=      5-min Rain = 0
KRO1 140212Z 07005KT M01/M02 A3031 RMK A01 T10071018  RH  092%=      5-min Rain = 0
KRO1 140213Z 07005KT M01/M02 A3031 RMK A01 T10071018  RH  093%=      5-min Rain = 0
KRO1 140214Z 07005KT M01/M02 A3031 RMK A01 T10081019  RH  092%=      5-min Rain = 0
KRO1 140215Z 07005KT M01/M02 A3031 RMK A01 T10081019  RH  092%=      5-min Rain = 0
KRO1 140216Z 08005KT M01/M02 A3031 RMK A01 T10081019  RH  092%=      5-min Rain = 0
KRO1 140217Z 08005KT M01/M02 A3031 RMK A01 T10091020  RH  092%=      5-min Rain = 0
KRO1 140218Z 08004KT M01/M02 A3031 RMK A01 T10091020  RH  092%=      5-min Rain = 0
KRO1 140219Z 08005KT M01/M02 A3031 RMK A01 T10091020  RH  092%=      5-min Rain = 0
KRO1 140220Z 08005KT M01/M02 A3031 RMK A01 T10101021  RH  092%=      5-min Rain = 0
KRO1 140221Z 08004KT M01/M02 A3031 RMK A01 T10101021  RH  092%=      5-min Rain = 0
KRO1 140222Z 08004KT M01/M02 A3031 RMK A01 T10101021  RH  092%=      5-min Rain = 0
KRO1 140223Z 08005KT M01/M02 A3031 RMK A01 T10111021  RH  093%=      5-min Rain = 0
KRO1 140224Z 08004KT M01/M02 A3032 RMK A01 T10111021  RH  093%=      5-min Rain = 0
KRO1 140225Z 09004KT M01/M02 A3032 RMK A01 T10101021  RH  093%=      5-min Rain = 0
KRO1 140226Z 09005KT M01/M02 A3032 RMK A01 T10111021  RH  093%=      5-min Rain = 0
KRO1 140227Z 09004KT M01/M02 A3032 RMK A01 T10111021  RH  093%=      5-min Rain = 0
KRO1 140228Z 09004KT M01/M02 A3032 RMK A01 T10111022  RH  093%=      5-min Rain = 0
KRO1 140229Z 09004KT M01/M02 A3032 RMK A01 T10111022  RH  093%=      5-min Rain = 0
KRO1 140230Z 09004KT M01/M02 A3032 RMK A01 T10121022  RH  093%=      5-min Rain = 0
KRO1 140231Z 09004KT M01/M02 A3032 RMK A01 T10121022  RH  093%=      5-min Rain = 0
KRO1 140232Z 09005KT M01/M02 A3032 RMK A01 T10121022  RH  093%=      5-min Rain = 0
KRO1 140233Z 09005KT M01/M02 A3032 RMK A01 T10121022  RH  093%=      5-min Rain = 0
KRO1 140234Z 09005KT M01/M02 A3032 RMK A01 T10121022  RH  093%=      5-min Rain = 0
KRO1 140235Z 09005KT M01/M02 A3032 RMK A01 T10121022  RH  093%=      5-min Rain = 0
KRO1 140236Z 09005KT M01/M02 A3032 RMK A01 T10121022  RH  093%=      5-min Rain = 0
KRO1 140237Z 09005KT M01/M02 A3032 RMK A01 T10121022  RH  093%=      5-min Rain = 0
KRO1 140238Z 10005KT M01/M02 A3032 RMK A01 T10121022  RH  093%=      5-min Rain = 0
KRO1 140239Z 10005KT M01/M02 A3032 RMK A01 T10121022  RH  093%=      5-min Rain = 0
KRO1 140240Z 10005KT M01/M02 A3032 RMK A01 T10121022  RH  093%=      5-min Rain = 0
KRO1 140241Z 10004KT M01/M02 A3032 RMK A01 T10121022  RH  093%=      5-min Rain = 0
KRO1 140242Z 09005KT M01/M02 A3032 RMK A01 T10121022  RH  093%=      5-min Rain = 0
KRO1 140243Z 09005KT M01/M02 A3032 RMK A01 T10121021  RH  093%=      5-min Rain = 0
KRO1 140244Z 08004KT M01/M02 A3032 RMK A01 T10111021  RH  093%=      5-min Rain = 0
KRO1 140245Z 08004KT M01/M02 A3032 RMK A01 T10111021  RH  093%=      5-min Rain = 0
KRO1 140246Z 08004KT M01/M02 A3032 RMK A01 T10111021  RH  093%=      5-min Rain = 0
KRO1 140247Z 08004KT M01/M02 A3032 RMK A01 T10111020  RH  093%=      5-min Rain = 0
KRO1 140248Z 08005KT M01/M02 A3032 RMK A01 T10111020  RH  093%=      5-min Rain = 0
KRO1 140249Z 08004KT M01/M02 A3032 RMK A01 T10101020  RH  093%=      5-min Rain = 0
KRO1 140250Z 08004KT M01/M02 A3032 RMK A01 T10101020  RH  093%=      5-min Rain = 0
KRO1 140251Z 08004KT M01/M02 A3033 RMK A01 T10101020  RH  093%=      5-min Rain = 0
KRO1 140252Z 08004KT M01/M02 A3033 RMK A01 T10101020  RH  093%=      5-min Rain = 0
KRO1 140253Z 08004KT M01/M02 A3033 RMK A01 T10101020  RH  093%=      5-min Rain = 0
KRO1 140254Z 08005KT M01/M02 A3033 RMK A01 T10101020  RH  093%=      5-min Rain = 0
KRO1 140255Z 08004KT M01/M02 A3033 RMK A01 T10111021  RH  093%=      5-min Rain = 0
KRO1 140256Z 08005KT M01/M02 A3033 RMK A01 T10111021  RH  093%=      5-min Rain = 0
KRO1 140257Z 08005KT M01/M02 A3032 RMK A01 T10101020  RH  093%=      5-min Rain = 0
KRO1 140258Z 08005KT M01/M02 A3032 RMK A01 T10111021  RH  093%=      5-min Rain = 0
KRO1 140259Z 08005KT M01/M02 A3032 RMK A01 T10111021  RH  093%=      5-min Rain = 0
KRO1 140300Z 08005KT M01/M02 A3032 RMK A01 T10111022  RH  092%=      5-min Rain = 0
KRO1 140301Z 08004KT M01/M02 A3032 RMK A01 T10111022  RH  092%=      5-min Rain = 0
KRO1 140302Z 08004KT M01/M02 A3032 RMK A01 T10111022  RH  092%=      5-min Rain = 0
KRO1 140303Z 08004KT M01/M02 A3033 RMK A01 T10111022  RH  092%=      5-min Rain = 0
KRO1 140304Z 08004KT M01/M02 A3033 RMK A01 T10111022  RH  092%=      5-min Rain = 0
KRO1 140305Z 08005KT M01/M02 A3033 RMK A01 T10111022  RH  092%=      5-min Rain = 0
KRO1 140306Z 08004KT M01/M02 A3033 RMK A01 T10111022  RH  093%=      5-min Rain = 0
KRO1 140307Z 08004KT M01/M02 A3033 RMK A01 T10111022  RH  093%=      5-min Rain = 0
KRO1 140308Z 08004KT M01/M02 A3033 RMK A01 T10111022  RH  093%=      5-min Rain = 0
KRO1 140309Z 08003KT M01/M02 A3033 RMK A01 T10111021  RH  093%=      5-min Rain = 0
KRO1 140310Z 08004KT M01/M02 A3033 RMK A01 T10121021  RH  093%=      5-min Rain = 0
KRO1 140311Z 08004KT M01/M02 A3033 RMK A01 T10111021  RH  093%=      5-min Rain = 0
KRO1 140312Z 08004KT M01/M02 A3033 RMK A01 T10111021  RH  094%=      5-min Rain = 0
KRO1 140313Z 08004KT M01/M02 A3033 RMK A01 T10121021  RH  094%=      5-min Rain = 0
KRO1 140314Z 08004KT M01/M02 A3033 RMK A01 T10121021  RH  094%=      5-min Rain = 0
KRO1 140315Z 08004KT M01/M02 A3033 RMK A01 T10121021  RH  094%=      5-min Rain = 0
KRO1 140316Z 08004KT M01/M02 A3033 RMK A01 T10121021  RH  094%=      5-min Rain = 0
KRO1 140317Z 09004KT M01/M02 A3033 RMK A01 T10121021  RH  094%=      5-min Rain = 0
KRO1 140318Z 09004KT M01/M02 A3033 RMK A01 T10131021  RH  094%=      5-min Rain = 0
KRO1 140319Z 10004KT M01/M02 A3033 RMK A01 T10131022  RH  094%=      5-min Rain = 0
KRO1 140320Z 09004KT M01/M02 A3033 RMK A01 T10131022  RH  094%=      5-min Rain = 0
KRO1 140321Z 09004KT M01/M02 A3033 RMK A01 T10141023  RH  093%=      5-min Rain = 0
KRO1 140322Z 09004KT M01/M02 A3033 RMK A01 T10131023  RH  093%=      5-min Rain = 0
KRO1 140323Z 10004KT M01/M02 A3033 RMK A01 T10141024  RH  093%=      5-min Rain = 0
KRO1 140324Z 10005KT M01/M02 A3033 RMK A01 T10141024  RH  093%=      5-min Rain = 0
KRO1 140325Z 10005KT M01/M02 A3033 RMK A01 T10141024  RH  093%=      5-min Rain = 0
KRO1 140326Z 10005KT M01/M02 A3033 RMK A01 T10131024  RH  093%=      5-min Rain = 0
KRO1 140327Z 10004KT M01/M02 A3033 RMK A01 T10131024  RH  093%=      5-min Rain = 0
KRO1 140328Z 10004KT M01/M02 A3033 RMK A01 T10141024  RH  093%=      5-min Rain = 0
KRO1 140329Z 09004KT M01/M02 A3033 RMK A01 T10141024  RH  093%=      5-min Rain = 0
KRO1 140330Z 10004KT M01/M02 A3033 RMK A01 T10131023  RH  093%=      5-min Rain = 0
KRO1 140331Z 10005KT M01/M02 A3033 RMK A01 T10121023  RH  093%=      5-min Rain = 0
KRO1 140332Z 10005KT M01/M02 A3033 RMK A01 T10121023  RH  093%=      5-min Rain = 0
KRO1 140333Z 10004KT M01/M02 A3033 RMK A01 T10121023  RH  093%=      5-min Rain = 0
KRO1 140334Z 09004KT M01/M02 A3033 RMK A01 T10121023  RH  093%=      5-min Rain = 0
KRO1 140335Z 09004KT M01/M02 A3033 RMK A01 T10121023  RH  093%=      5-min Rain = 0
KRO1 140336Z 09004KT M01/M02 A3033 RMK A01 T10131023  RH  093%=      5-min Rain = 0
KRO1 140337Z 09004KT M01/M02 A3033 RMK A01 T10121023  RH  093%=      5-min Rain = 0
KRO1 140338Z 09004KT M01/M02 A3033 RMK A01 T10131023  RH  093%=      5-min Rain = 0
KRO1 140339Z 09004KT M01/M02 A3033 RMK A01 T10121022  RH  093%=      5-min Rain = 0
KRO1 140340Z 08004KT M01/M02 A3033 RMK A01 T10121022  RH  093%=      5-min Rain = 0
KRO1 140341Z 09004KT M01/M02 A3033 RMK A01 T10121022  RH  093%=      5-min Rain = 0
KRO1 140342Z 09004KT M01/M02 A3033 RMK A01 T10121022  RH  093%=      5-min Rain = 0
KRO1 140343Z 08004KT M01/M02 A3033 RMK A01 T10121022  RH  093%=      5-min Rain = 0
KRO1 140344Z 08004KT M01/M02 A3033 RMK A01 T10131022  RH  093%=      5-min Rain = 0
KRO1 140345Z 08004KT M01/M02 A3033 RMK A01 T10121022  RH  093%=      5-min Rain = 0
KRO1 140346Z 08004KT M01/M02 A3033 RMK A01 T10121022  RH  093%=      5-min Rain = 0
KRO1 140347Z 08004KT M01/M02 A3033 RMK A01 T10121022  RH  093%=      5-min Rain = 0
KRO1 140348Z 08004KT M01/M02 A3033 RMK A01 T10121022  RH  093%=      5-min Rain = 0
KRO1 140349Z 08004KT M01/M02 A3033 RMK A01 T10121022  RH  093%=      5-min Rain = 0
KRO1 140350Z 08004KT M01/M02 A3033 RMK A01 T10121022  RH  093%=      5-min Rain = 0
KRO1 140351Z 08004KT M01/M02 A3033 RMK A01 T10121022  RH  093%=      5-min Rain = 0
KRO1 140352Z 08004KT M01/M02 A3033 RMK A01 T10121022  RH  093%=      5-min Rain = 0
KRO1 140353Z 08004KT M01/M02 A3033 RMK A01 T10121022  RH  093%=      5-min Rain = 0
KRO1 140354Z 08005KT M01/M02 A3033 RMK A01 T10121022  RH  093%=      5-min Rain = 0
KRO1 140355Z 08005KT M01/M02 A3033 RMK A01 T10131022  RH  093%=      5-min Rain = 0
KRO1 140356Z 08005KT M01/M02 A3033 RMK A01 T10131023  RH  093%=      5-min Rain = 0
KRO1 140357Z 08005KT M01/M02 A3033 RMK A01 T10131023  RH  093%=      5-min Rain = 0
KRO1 140358Z 08005KT M01/M02 A3033 RMK A01 T10131023  RH  093%=      5-min Rain = 0
KRO1 140359Z 08005KT M01/M02 A3033 RMK A01 T10131023  RH  093%=      5-min Rain = 0
KRO1 140400Z 08005KT M01/M02 A3033 RMK A01 T10131023  RH  093%=      5-min Rain = 0
KRO1 140401Z 08005KT M01/M02 A3033 RMK A01 T10131022  RH  093%=      5-min Rain = 0
KRO1 140402Z 08005KT M01/M02 A3033 RMK A01 T10131023  RH  093%=      5-min Rain = 0
KRO1 140403Z 09004KT M01/M02 A3033 RMK A01 T10131023  RH  093%=      5-min Rain = 0
KRO1 140404Z 09005KT M01/M02 A3033 RMK A01 T10131023  RH  093%=      5-min Rain = 0
KRO1 140405Z 09004KT M01/M02 A3033 RMK A01 T10131023  RH  093%=      5-min Rain = 0
KRO1 140406Z 09005KT M01/M02 A3033 RMK A01 T10131023  RH  093%=      5-min Rain = 0
KRO1 140407Z 09004KT M01/M02 A3033 RMK A01 T10131023  RH  093%=      5-min Rain = 0
KRO1 140408Z 08004KT M01/M02 A3034 RMK A01 T10131023  RH  093%=      5-min Rain = 0
KRO1 140409Z 08004KT M01/M02 A3034 RMK A01 T10131023  RH  093%=      5-min Rain = 0
KRO1 140410Z 08005KT M01/M02 A3034 RMK A01 T10131023  RH  093%=      5-min Rain = 0
KRO1 140411Z 08005KT M01/M02 A3034 RMK A01 T10131023  RH  093%=      5-min Rain = 0
KRO1 140412Z 08005KT M01/M02 A3034 RMK A01 T10131023  RH  093%=      5-min Rain = 0
KRO1 140413Z 08006KT M01/M02 A3034 RMK A01 T10131023  RH  093%=      5-min Rain = 0
KRO1 140414Z 08005KT M01/M02 A3034 RMK A01 T10131023  RH  093%=      5-min Rain = 0
KRO1 140415Z 09005KT M01/M02 A3034 RMK A01 T10131023  RH  093%=      5-min Rain = 0
KRO1 140416Z 08006KT M01/M02 A3034 RMK A01 T10131023  RH  093%=      5-min Rain = 0
KRO1 140417Z 08006KT M01/M02 A3034 RMK A01 T10121023  RH  093%=      5-min Rain = 0
KRO1 140418Z 08007KT M01/M02 A3034 RMK A01 T10121023  RH  092%=      5-min Rain = 0
KRO1 140419Z 08006KT M01/M02 A3034 RMK A01 T10111023  RH  092%=      5-min Rain = 0
KRO1 140420Z 08007KT M01/M02 A3034 RMK A01 T10111023  RH  091%=      5-min Rain = 0
KRO1 140421Z 08007KT M01/M02 A3034 RMK A01 T10101023  RH  091%=      5-min Rain = 0
KRO1 140422Z 08007KT M01/M02 A3034 RMK A01 T10101024  RH  090%=      5-min Rain = 0
KRO1 140423Z 08007KT M01/M02 A3034 RMK A01 T10101024  RH  090%=      5-min Rain = 0
KRO1 140424Z 08008KT M01/M03 A3034 RMK A01 T10101025  RH  090%=      5-min Rain = 0
KRO1 140425Z 08007KT M01/M03 A3034 RMK A01 T10091025  RH  089%=      5-min Rain = 0
KRO1 140426Z 08007KT M01/M03 A3034 RMK A01 T10091025  RH  089%=      5-min Rain = 0
KRO1 140427Z 08007KT M01/M03 A3034 RMK A01 T10091025  RH  089%=      5-min Rain = 0
KRO1 140428Z 08007KT M01/M03 A3034 RMK A01 T10091025  RH  089%=      5-min Rain = 0
KRO1 140429Z 08007KT M01/M03 A3034 RMK A01 T10091025  RH  089%=      5-min Rain = 0
KRO1 140430Z 07007KT M01/M02 A3034 RMK A01 T10091024  RH  089%=      5-min Rain = 0
KRO1 140431Z 08007KT M01/M02 A3034 RMK A01 T10091024  RH  090%=      5-min Rain = 0
KRO1 140432Z 08007KT M01/M02 A3034 RMK A01 T10091024  RH  090%=      5-min Rain = 0
KRO1 140433Z 08007KT M01/M02 A3034 RMK A01 T10091024  RH  090%=      5-min Rain = 0
KRO1 140434Z 08007KT M01/M03 A3034 RMK A01 T10101025  RH  090%=      5-min Rain = 0
KRO1 140435Z 07007KT M01/M02 A3034 RMK A01 T10101024  RH  090%=      5-min Rain = 0
KRO1 140436Z 07007KT M01/M03 A3034 RMK A01 T10101025  RH  090%=      5-min Rain = 0
KRO1 140437Z 07008KT M01/M03 A3034 RMK A01 T10101025  RH  090%=      5-min Rain = 0
KRO1 140438Z 08009KT M01/M03 A3034 RMK A01 T10101025  RH  089%=      5-min Rain = 0
KRO1 140439Z 08008KT M01/M03 A3034 RMK A01 T10091025  RH  089%=      5-min Rain = 0
KRO1 140440Z 08008KT M01/M03 A3034 RMK A01 T10091026  RH  088%=      5-min Rain = 0
KRO1 140441Z 08007KT M01/M03 A3034 RMK A01 T10091026  RH  088%=      5-min Rain = 0
KRO1 140442Z 08008KT M01/M03 A3034 RMK A01 T10091026  RH  088%=      5-min Rain = 0
KRO1 140443Z 08008KT M01/M03 A3034 RMK A01 T10091026  RH  088%=      5-min Rain = 0
KRO1 140444Z 08008KT M01/M03 A3034 RMK A01 T10091026  RH  088%=      5-min Rain = 0
KRO1 140445Z 08009KT M01/M03 A3034 RMK A01 T10091027  RH  088%=      5-min Rain = 0
KRO1 140446Z 08009KT M01/M03 A3034 RMK A01 T10091027  RH  087%=      5-min Rain = 0
KRO1 140447Z 08009KT M01/M03 A3034 RMK A01 T10091027  RH  087%=      5-min Rain = 0
KRO1 140448Z 08008KT M01/M03 A3034 RMK A01 T10091027  RH  087%=      5-min Rain = 0
KRO1 140449Z 08009KT M01/M03 A3034 RMK A01 T10081027  RH  087%=      5-min Rain = 0
KRO1 140450Z 08008KT M01/M03 A3035 RMK A01 T10091028  RH  087%=      5-min Rain = 0
KRO1 140451Z 08010KT M01/M03 A3035 RMK A01 T10091028  RH  087%=      5-min Rain = 0
KRO1 140452Z 08010KT M01/M03 A3035 RMK A01 T10091028  RH  087%=      5-min Rain = 0
KRO1 140453Z 08010KT M01/M03 A3035 RMK A01 T10091028  RH  087%=      5-min Rain = 0
KRO1 140454Z 08009KT M01/M03 A3035 RMK A01 T10081028  RH  087%=      5-min Rain = 0
KRO1 140455Z 08009KT M01/M03 A3035 RMK A01 T10081028  RH  086%=      5-min Rain = 0
KRO1 140456Z 07008KT M01/M03 A3035 RMK A01 T10081027  RH  087%=      5-min Rain = 0
KRO1 140457Z 08007KT M01/M03 A3035 RMK A01 T10081027  RH  087%=      5-min Rain = 0
KRO1 140458Z 08008KT M01/M03 A3035 RMK A01 T10091027  RH  088%=      5-min Rain = 0
KRO1 140459Z 08008KT M01/M03 A3035 RMK A01 T10091027  RH  088%=      5-min Rain = 0
KRO1 140500Z 08008KT M01/M03 A3035 RMK A01 T10091027  RH  088%=      5-min Rain = 0
KRO1 140501Z 08008KT M01/M03 A3035 RMK A01 T10101027  RH  088%=      5-min Rain = 0
KRO1 140502Z 08008KT M01/M03 A3035 RMK A01 T10091027  RH  088%=      5-min Rain = 0
KRO1 140503Z 08007KT M01/M03 A3035 RMK A01 T10101027  RH  088%=      5-min Rain = 0
KRO1 140504Z 08008KT M01/M03 A3035 RMK A01 T10101027  RH  088%=      5-min Rain = 0
KRO1 140505Z 08008KT M01/M03 A3035 RMK A01 T10101027  RH  088%=      5-min Rain = 0
KRO1 140506Z 08008KT M01/M03 A3035 RMK A01 T10101027  RH  089%=      5-min Rain = 0
KRO1 140507Z 08008KT M01/M03 A3035 RMK A01 T10101027  RH  089%=      5-min Rain = 0
KRO1 140508Z 09007KT M01/M03 A3035 RMK A01 T10111027  RH  089%=      5-min Rain = 0
KRO1 140509Z 09006KT M01/M03 A3035 RMK A01 T10111027  RH  089%=      5-min Rain = 0
KRO1 140510Z 09007KT M01/M03 A3035 RMK A01 T10111027  RH  089%=      5-min Rain = 0
KRO1 140511Z 09007KT M01/M03 A3035 RMK A01 T10121027  RH  089%=      5-min Rain = 0
KRO1 140512Z 09007KT M01/M03 A3035 RMK A01 T10121027  RH  089%=      5-min Rain = 0
KRO1 140513Z 09008KT M01/M03 A3035 RMK A01 T10121028  RH  089%=      5-min Rain = 0
KRO1 140514Z 09007KT M01/M03 A3035 RMK A01 T10121028  RH  089%=      5-min Rain = 0
KRO1 140515Z 09007KT M01/M03 A3035 RMK A01 T10131028  RH  089%=      5-min Rain = 0
KRO1 140516Z 09007KT M01/M03 A3035 RMK A01 T10131028  RH  090%=      5-min Rain = 0
KRO1 140517Z 09007KT M01/M03 A3035 RMK A01 T10121028  RH  090%=      5-min Rain = 0
KRO1 140518Z 08007KT M01/M03 A3035 RMK A01 T10121027  RH  090%=      5-min Rain = 0
KRO1 140519Z 09008KT M01/M03 A3035 RMK A01 T10131027  RH  090%=      5-min Rain = 0
KRO1 140520Z 09008KT M01/M03 A3035 RMK A01 T10131027  RH  090%=      5-min Rain = 0
KRO1 140521Z 09008KT M01/M03 A3035 RMK A01 T10131027  RH  090%=      5-min Rain = 0
KRO1 140522Z 09008KT M01/M03 A3035 RMK A01 T10131027  RH  090%=      5-min Rain = 0
KRO1 140523Z 09007KT M01/M03 A3035 RMK A01 T10131027  RH  090%=      5-min Rain = 0
KRO1 140524Z 09007KT M01/M03 A3035 RMK A01 T10131027  RH  090%=      5-min Rain = 0
KRO1 140525Z 09007KT M01/M03 A3035 RMK A01 T10131027  RH  090%=      5-min Rain = 0
KRO1 140526Z 08006KT M01/M03 A3035 RMK A01 T10131027  RH  091%=      5-min Rain = 0
KRO1 140527Z 08006KT M01/M03 A3035 RMK A01 T10131026  RH  091%=      5-min Rain = 0
KRO1 140528Z 08007KT M01/M03 A3035 RMK A01 T10131026  RH  091%=      5-min Rain = 0
KRO1 140529Z 08006KT M01/M03 A3035 RMK A01 T10131026  RH  091%=      5-min Rain = 0
KRO1 140530Z 08006KT M01/M03 A3035 RMK A01 T10141027  RH  091%=      5-min Rain = 0
KRO1 140531Z 08007KT M01/M03 A3035 RMK A01 T10141026  RH  091%=      5-min Rain = 0
KRO1 140532Z 08006KT M01/M03 A3035 RMK A01 T10141026  RH  091%=      5-min Rain = 0
KRO1 140533Z 08007KT M01/M03 A3036 RMK A01 T10141026  RH  091%=      5-min Rain = 0
KRO1 140534Z 08006KT M01/M03 A3036 RMK A01 T10141027  RH  091%=      5-min Rain = 0
KRO1 140535Z 08006KT M02/M03 A3036 RMK A01 T10151027  RH  092%=      5-min Rain = 0
KRO1 140536Z 08007KT M02/M03 A3036 RMK A01 T10151027  RH  092%=      5-min Rain = 0
KRO1 140537Z 08006KT M02/M03 A3036 RMK A01 T10151027  RH  092%=      5-min Rain = 0
KRO1 140538Z 08006KT M02/M03 A3036 RMK A01 T10151027  RH  092%=      5-min Rain = 0
KRO1 140539Z 08006KT M02/M03 A3036 RMK A01 T10151027  RH  092%=      5-min Rain = 0
KRO1 140540Z 08006KT M02/M03 A3036 RMK A01 T10151027  RH  092%=      5-min Rain = 0
KRO1 140541Z 08006KT M02/M03 A3036 RMK A01 T10151027  RH  092%=      5-min Rain = 0
KRO1 140542Z 08006KT M02/M03 A3036 RMK A01 T10161027  RH  092%=      5-min Rain = 0
KRO1 140543Z 08006KT M02/M03 A3036 RMK A01 T10161027  RH  092%=      5-min Rain = 0
KRO1 140544Z 08006KT M02/M03 A3035 RMK A01 T10161027  RH  092%=      5-min Rain = 0
KRO1 140545Z 08006KT M02/M03 A3035 RMK A01 T10161027  RH  093%=      5-min Rain = 0
KRO1 140546Z 08006KT M02/M03 A3035 RMK A01 T10161027  RH  093%=      5-min Rain = 0
KRO1 140547Z 08006KT M02/M03 A3035 RMK A01 T10171027  RH  093%=      5-min Rain = 0
KRO1 140548Z 08006KT M02/M03 A3035 RMK A01 T10161026  RH  093%=      5-min Rain = 0
KRO1 140549Z 08006KT M02/M03 A3035 RMK A01 T10161026  RH  093%=      5-min Rain = 0
KRO1 140550Z 08006KT M02/M03 A3035 RMK A01 T10171027  RH  093%=      5-min Rain = 0
KRO1 140551Z 08006KT M02/M03 A3035 RMK A01 T10171027  RH  093%=      5-min Rain = 0
KRO1 140552Z 08007KT M02/M03 A3036 RMK A01 T10171027  RH  093%=      5-min Rain = 0
KRO1 140553Z 08006KT M02/M03 A3036 RMK A01 T10171027  RH  093%=      5-min Rain = 0
KRO1 140554Z 08006KT M02/M03 A3036 RMK A01 T10161026  RH  093%=      5-min Rain = 0
KRO1 140555Z 08007KT M02/M03 A3036 RMK A01 T10161026  RH  093%=      5-min Rain = 0
KRO1 140556Z 08007KT M02/M03 A3035 RMK A01 T10161026  RH  093%=      5-min Rain = 0
KRO1 140557Z 08007KT M02/M03 A3035 RMK A01 T10161027  RH  093%=      5-min Rain = 0
KRO1 140558Z 08007KT M02/M03 A3035 RMK A01 T10161027  RH  093%=      5-min Rain = 0
KRO1 140559Z 08007KT M02/M03 A3035 RMK A01 T10171028  RH  092%=      5-min Rain = 0

Page generated in 0.0725 seconds.